ECMWFFLT1_850_temp_000.txt.gz
Temp
30 29 28 28 27 26 26 26 25 25 24 24 24 24 23 23 23 23 22 22 22 22 22 22 22 22 22 22 22 22 21 21 21 21 21 21 21 20 20 20 19 19 18 18 18 18 17 17 17 16 16 16 15 15 15 15 15 14 14 14 14 14 14
31 30 29 28 28 27 27 26 25 25 24 24 24 24 23 23 23 23 22 22 22 23 22 22 22 22 22 22 22 22 21 21 21 21 21 21 21 21 20 20 19 19 19 18 18 18 17 17 17 16 16 16 15 15 15 15 15 14 15 14 14 14 14
31 30 29 28 28 27 27 26 26 25 25 24 24 24 24 23 23 23 23 23 23 23 23 22 22 22 22 22 22 21 21 21 21 21 21 21 21 21 20 20 19 19 19 19 19 18 17 17 16 16 16 15 15 15 15 15 15 15 15 14 14 15 15
31 31 30 29 28 28 27 27 27 26 26 25 25 24 24 24 24 24 24 23 23 23 23 23 23 23 22 22 22 22 22 22 21 21 21 21 20 20 20 20 19 19 19 19 19 18 18 17 16 16 16 16 16 15 15 15 15 14 14 14 15 15 15
31 31 30 29 28 28 27 28 28 27 26 26 25 24 25 25 25 24 24 24 24 23 23 23 22 22 23 23 23 22 22 22 22 21 21 21 20 20 20 20 19 19 19 19 19 19 18 18 17 17 17 16 16 15 15 15 15 15 14 14 14 15 15
31 30 30 30 29 28 27 28 28 28 27 27 26 25 25 25 25 24 24 24 24 23 23 23 22 22 23 23 23 23 23 22 22 22 21 21 21 21 21 20 20 19 19 19 18 18 18 18 17 17 17 16 15 15 15 15 15 14 14 14 14 14 15
32 31 30 29 29 28 28 28 28 28 27 27 26 25 25 25 25 24 24 24 24 24 23 23 23 23 23 23 23 23 23 23 22 22 22 22 21 21 21 20 20 20 19 19 18 18 18 18 17 17 17 16 16 15 15 15 15 15 15 15 15 15 14
32 31 30 29 29 29 29 28 29 29 28 27 27 26 25 25 25 25 25 25 24 24 23 23 23 23 24 24 24 24 24 24 23 23 22 22 21 21 21 21 21 20 19 19 18 18 18 17 17 17 17 17 16 16 16 16 16 16 15 15 15 15 14
32 31 29 29 29 29 29 29 28 29 28 27 27 26 26 26 26 25 25 25 24 24 24 23 23 23 24 25 24 24 24 24 24 23 23 22 22 22 21 21 21 20 19 18 17 17 17 17 17 17 17 16 16 16 16 16 17 16 16 15 15 15 15
32 30 29 29 29 29 29 29 29 28 28 27 26 26 26 26 26 25 25 25 25 24 24 24 24 23 24 25 25 25 24 24 24 24 23 22 22 21 21 21 21 20 20 18 16 17 17 17 16 16 17 17 16 16 16 16 17 17 16 16 16 16 16
31 30 29 29 29 29 29 29 29 28 27 26 26 27 27 26 26 25 25 25 25 25 24 24 24 24 24 25 25 24 24 23 23 23 22 22 22 22 21 21 21 20 20 19 18 17 17 17 17 17 17 18 17 17 17 16 17 17 16 16 16 16 16
30 29 28 28 28 29 29 28 28 27 27 27 27 27 27 27 26 26 25 25 25 25 24 24 24 24 24 23 24 23 22 21 21 21 21 21 22 22 22 21 21 21 20 20 19 19 18 18 18 18 18 18 18 18 17 16 16 17 17 16 16 16 16
30 28 27 27 27 27 28 27 27 27 27 27 27 27 27 27 26 26 26 25 25 25 25 24 24 24 24 24 24 23 22 22 22 23 22 21 21 22 22 22 21 21 21 20 20 20 20 19 19 19 19 19 19 18 17 16 16 16 17 16 16 16 16
29 28 27 27 27 27 27 26 26 27 27 27 27 27 27 26 26 26 26 26 26 26 25 25 24 24 25 24 23 22 23 23 22 23 23 21 20 21 22 22 21 21 21 21 21 21 21 20 20 20 19 19 19 18 17 17 17 16 16 17 16 16 16
30 29 27 27 27 27 27 26 26 26 26 27 27 26 26 26 26 27 27 27 27 27 26 25 24 24 24 23 23 22 21 21 20 20 21 19 18 20 22 22 22 21 21 21 21 21 21 21 20 19 19 19 18 18 17 17 17 17 16 17 17 16 16
31 30 28 28 28 28 28 27 27 26 26 27 27 26 27 27 27 27 27 27 28 28 26 25 24 23 22 22 22 22 21 20 20 21 20 19 19 20 21 22 22 21 21 21 21 21 21 20 19 19 19 18 17 16 16 16 17 16 16 17 16 16 15
31 30 29 29 29 28 27 28 28 27 27 28 28 27 27 27 27 27 27 27 27 27 26 24 23 22 21 21 22 22 21 21 21 21 21 20 20 20 21 21 21 22 22 21 21 21 21 20 19 18 18 17 16 15 15 16 16 16 16 16 16 15 15
31 30 29 29 29 27 26 27 28 28 28 29 28 27 27 27 27 27 26 25 25 25 24 23 22 22 21 21 21 21 21 21 21 21 21 20 19 20 21 22 21 22 22 22 22 22 21 20 19 18 18 17 16 15 15 16 16 16 16 16 16 15 15
30 29 29 28 27 26 26 26 26 26 27 26 25 25 26 26 25 25 25 24 23 23 23 23 22 22 21 21 20 20 21 20 20 20 19 19 19 19 20 21 21 21 22 22 22 21 20 20 19 18 17 17 16 15 15 16 16 16 16 15 15 15 15
28 28 28 27 26 26 26 25 25 25 25 25 24 24 24 23 23 24 24 24 24 24 23 23 22 21 21 20 20 20 20 20 20 19 19 19 19 19 19 19 20 20 21 21 21 20 20 20 19 18 17 16 16 15 15 16 16 15 15 15 15 15 15
27 27 27 26 26 25 25 25 25 25 25 24 24 24 24 24 24 24 24 24 25 24 24 24 22 21 21 21 21 21 21 20 20 19 19 19 19 18 18 18 19 19 19 19 19 19 19 19 18 18 16 16 16 15 15 16 16 15 15 14 14 15 15
28 27 27 26 26 26 26 25 25 25 25 25 25 25 25 25 24 24 23 24 25 25 25 24 23 22 23 23 23 22 21 20 19 19 19 19 19 18 18 19 19 18 18 18 18 18 18 18 18 17 16 15 15 15 15 15 15 15 14 15 15 15 15
28 27 27 26 26 26 26 26 26 26 26 26 27 27 26 25 24 24 25 25 26 26 26 25 25 24 24 24 23 22 21 20 19 19 18 19 18 18 19 19 19 18 18 18 18 17 17 17 17 17 16 15 15 15 15 15 15 15 15 15 15 16 16
26 26 26 26 26 26 25 25 26 27 26 26 26 27 27 26 26 26 26 26 26 26 26 25 25 24 23 23 23 22 21 19 19 18 18 18 18 19 19 19 19 19 19 18 17 17 17 17 16 16 15 15 14 15 15 15 15 15 15 16 16 16 16
25 25 25 25 25 25 25 25 25 26 25 25 26 27 27 27 27 26 26 26 26 26 25 25 25 24 23 23 23 21 20 19 18 18 18 18 18 19 19 19 19 18 18 17 17 17 17 16 16 15 15 15 15 15 15 15 15 15 15 16 16 16 16
24 24 24 24 24 25 25 25 25 25 25 26 27 27 27 26 26 26 26 26 25 25 25 25 24 24 23 23 22 20 19 19 18 18 18 18 18 18 18 18 18 18 17 17 16 16 16 16 16 15 15 15 15 15 15 15 15 15 16 16 16 16 16
24 24 24 24 24 25 25 25 25 25 26 26 27 26 26 26 26 25 25 25 25 25 24 24 24 23 23 23 22 20 19 18 18 17 17 17 18 18 18 18 18 18 18 17 16 15 15 15 16 15 15 15 15 14 14 15 15 15 16 16 16 16 16
24 24 24 24 25 25 25 25 26 26 26 26 26 26 26 25 25 25 25 25 25 24 24 24 24 23 23 22 20 19 19 18 17 17 17 17 17 17 18 18 18 18 17 16 16 15 15 15 15 16 15 15 15 14 14 15 15 16 16 16 16 15 15
24 24 24 25 25 25 25 25 25 25 25 25 25 25 25 25 25 25 25 25 25 25 25 25 24 24 23 22 19 18 17 18 17 17 17 17 17 17 18 18 17 17 17 16 15 15 15 15 15 15 15 15 15 14 15 16 16 16 16 16 15 15 15
25 25 25 25 25 25 25 25 25 25 25 25 25 25 25 25 26 25 25 25 25 25 24 24 24 23 22 21 19 18 17 17 18 18 17 17 17 17 17 17 17 17 16 16 15 15 14 14 15 15 15 15 15 15 16 16 16 16 16 16 15 15 14
24 25 25 24 24 24 24 24 25 25 25 25 25 24 24 24 25 25 25 25 24 24 23 23 23 22 21 19 19 19 18 18 18 18 17 17 17 16 17 17 16 16 16 15 15 15 15 15 15 15 15 15 15 16 16 16 16 16 16 15 15 14 14
23 23 23 23 23 23 23 24 24 24 24 24 24 24 24 24 25 25 24 24 24 24 23 22 23 22 21 19 19 20 19 18 17 17 16 16 16 16 16 16 16 16 16 16 15 15 15 15 15 15 15 15 15 16 16 16 16 16 15 15 15 15 15
23 23 23 23 23 23 23 23 23 23 24 24 24 23 23 24 25 25 24 24 24 23 22 22 22 21 20 18 18 18 18 17 16 15 15 15 15 15 15 15 15 16 16 16 15 15 15 15 15 15 15 15 15 15 16 16 16 16 15 15 15 15 15
22 23 23 23 23 23 22 22 23 23 23 23 23 23 23 23 24 24 24 23 22 21 21 21 20 19 17 16 16 16 16 15 15 15 14 14 15 15 15 15 15 15 15 15 15 15 15 15 15 15 15 15 15 15 15 16 15 15 14 14 14 14 14
21 22 22 23 23 23 22 22 22 23 23 23 23 23 23 23 23 23 22 20 19 20 21 20 18 17 16 16 16 16 15 15 15 15 14 14 15 15 15 15 16 15 15 16 16 15 15 15 15 15 15 15 15 15 15 15 15 15 14 14 14 14 14
21 21 21 22 22 22 22 22 22 22 22 22 22 22 22 22 22 21 19 18 18 19 20 19 17 16 16 16 16 15 15 15 15 15 15 15 16 16 16 16 16 16 16 16 16 15 15 15 15 15 16 16 15 15 15 15 15 15 15 15 15 14 14
20 20 20 21 21 22 22 21 21 21 21 21 21 21 21 21 21 20 19 17 17 18 18 17 16 17 17 17 16 16 15 16 16 15 15 15 16 16 16 16 16 16 16 16 16 16 15 16 16 16 16 16 15 15 16 15 15 15 15 15 14 14 14
20 20 19 20 21 21 21 21 20 20 21 21 20 20 20 20 20 19 18 17 16 16 16 16 17 17 17 17 17 16 16 16 16 15 15 15 16 16 16 16 17 17 17 17 16 16 16 16 16 16 16 16 15 15 15 15 15 15 15 14 14 13 13

ECMWFFLT1_850_temp_003.txt.gz
Temp
32 31 31 30 29 28 28 28 27 27 26 25 25 24 24 24 24 24 23 23 22 22 21 21 21 21 21 21 21 21 22 22 22 22 21 20 20 20 20 20 19 19 19 19 19 18 18 18 18 18 18 17 17 16 16 16 16 16 15 16 16 15 15
33 32 32 31 29 29 29 28 27 27 26 26 25 24 24 24 24 24 23 23 22 22 21 21 21 21 21 21 21 21 21 22 22 22 21 21 20 20 20 19 19 19 19 19 19 18 18 18 18 18 18 17 17 16 16 16 16 15 15 15 15 15 15
33 32 32 31 30 29 29 28 27 27 26 26 25 25 25 24 24 24 23 23 22 22 22 21 21 21 21 21 21 21 21 22 22 22 22 21 20 20 20 19 19 19 19 19 18 18 18 18 18 17 17 17 16 16 16 16 15 15 15 15 15 15 15
34 33 32 31 30 30 29 29 28 27 27 26 26 25 25 24 24 24 24 23 23 22 22 22 22 22 22 22 21 21 21 22 22 23 22 21 20 20 20 19 19 19 19 19 18 18 18 18 17 17 17 17 16 16 16 16 16 15 15 15 15 15 15
34 34 33 32 31 30 30 29 28 28 27 27 26 26 25 25 24 24 24 24 23 23 22 22 22 22 22 22 22 21 21 21 22 23 22 21 20 20 20 19 19 19 19 19 19 19 19 18 18 18 17 17 16 16 16 16 16 16 15 15 15 15 15
35 34 33 32 31 30 30 29 28 28 28 28 27 26 25 25 25 25 24 24 24 23 23 22 22 22 22 22 22 21 21 21 22 22 22 22 20 20 20 19 19 19 19 19 20 19 19 19 19 19 18 17 17 16 16 16 16 16 16 15 15 15 15
36 34 32 31 31 30 30 29 29 29 28 28 27 26 26 26 26 25 25 24 24 24 23 23 23 23 22 22 22 22 21 21 22 22 22 21 20 20 20 19 19 19 19 20 20 20 20 21 21 21 20 19 18 17 17 16 17 17 16 15 15 15 15
36 34 32 31 30 31 31 30 30 29 29 28 28 27 26 26 26 26 25 25 25 24 24 23 23 23 23 22 22 22 22 21 22 22 22 21 21 20 20 20 20 20 20 20 21 21 22 23 23 22 21 20 20 19 18 17 17 17 17 16 15 15 15
36 34 32 32 30 30 31 31 30 30 29 28 29 28 27 27 27 26 26 26 25 25 25 24 24 23 23 22 22 22 22 21 22 22 22 21 21 20 21 21 21 21 21 22 22 23 23 23 23 22 21 21 21 20 18 17 17 17 17 17 16 15 15
35 33 33 32 31 30 32 31 30 30 29 29 29 28 27 27 27 27 27 27 26 26 26 25 25 24 23 22 22 22 22 22 22 22 22 22 21 21 21 22 22 22 22 22 23 24 24 24 23 22 21 21 21 21 19 18 17 17 17 17 17 16 16
34 33 33 32 31 31 32 32 31 30 30 29 29 29 28 27 27 28 27 27 27 27 27 26 25 25 24 23 22 22 22 22 22 21 22 22 21 21 22 22 22 22 22 23 24 25 24 24 24 23 21 21 21 21 20 19 18 18 17 17 16 16 16
34 34 33 32 32 32 32 32 31 30 30 30 29 29 28 27 27 28 28 28 28 28 27 27 26 25 25 23 23 22 22 22 21 22 23 23 21 21 22 22 22 23 23 24 24 25 24 24 24 23 21 21 20 21 20 20 19 18 18 16 15 16 16
34 34 33 32 31 31 31 31 31 30 30 30 29 29 28 28 27 28 28 28 28 28 28 27 26 25 25 24 23 23 23 22 22 22 23 23 21 22 22 22 23 24 24 24 24 24 24 24 23 23 22 21 21 21 20 20 19 19 18 16 15 16 17
34 33 32 31 31 31 31 30 30 30 29 29 29 29 28 28 27 28 28 28 28 28 28 27 26 26 25 24 24 23 23 23 22 22 23 23 22 23 23 23 23 24 25 25 24 24 24 23 23 23 22 21 21 20 20 20 19 18 17 16 16 16 17
34 32 30 30 30 30 30 30 30 30 29 29 29 28 28 28 27 28 28 27 28 28 28 27 27 26 25 24 24 24 23 23 22 21 22 23 23 23 24 23 23 24 25 24 24 24 24 24 23 22 22 21 21 20 19 19 19 18 17 16 16 17 17
35 33 31 31 30 30 29 29 29 29 28 28 28 28 27 27 27 27 27 27 27 27 28 28 27 25 25 25 25 24 23 22 22 21 22 22 23 24 24 24 24 24 25 24 24 24 24 24 23 22 22 22 21 20 19 19 19 19 18 17 16 16 17
36 35 34 34 32 30 29 29 29 28 28 27 27 27 27 27 27 27 27 27 27 27 27 27 26 25 25 24 24 24 23 22 22 22 22 22 23 23 23 23 24 24 24 24 24 23 24 24 23 22 22 22 21 21 20 19 18 18 18 17 16 16 16
35 35 35 34 32 30 29 29 28 27 27 27 27 27 27 27 26 26 27 27 27 27 27 26 26 25 25 24 24 23 23 22 22 22 22 22 22 22 22 22 22 23 23 23 23 23 23 23 22 22 22 22 21 21 20 19 18 18 18 17 16 16 16
35 35 35 33 32 31 30 29 28 27 27 27 27 27 27 26 26 26 26 26 26 26 26 26 25 25 24 23 23 23 23 22 22 22 22 23 22 22 21 21 21 22 22 22 22 22 22 23 22 21 21 21 21 20 19 18 18 18 17 17 16 16 16
35 35 34 32 31 31 30 29 28 28 27 27 27 27 27 26 26 26 26 26 26 26 26 26 25 24 23 23 23 23 23 23 23 23 23 23 22 21 20 20 20 21 21 21 21 21 22 22 21 21 21 21 20 19 18 17 16 17 17 17 17 16 16
34 34 32 31 31 31 30 29 29 28 27 27 27 27 27 26 26 26 26 26 25 25 25 25 24 23 23 23 23 23 22 23 23 23 23 22 21 20 20 20 19 20 20 20 21 21 21 21 21 21 20 20 19 18 17 16 16 16 16 17 17 16 16
34 33 32 31 31 30 29 29 29 28 27 27 27 27 27 26 26 26 26 26 25 25 24 24 23 23 23 23 23 23 22 22 22 22 22 22 21 20 20 19 19 19 19 20 20 20 20 20 20 20 20 19 19 18 16 16 16 16 16 17 16 16 15
33 33 32 32 30 30 29 28 28 28 27 27 27 27 27 26 26 26 26 25 24 24 24 23 23 23 22 22 22 22 22 22 22 22 21 21 20 20 20 19 19 19 19 19 19 18 19 19 19 19 19 19 18 17 17 16 15 16 16 16 16 15 15
32 33 32 31 30 29 28 27 27 27 26 27 27 27 26 26 26 26 25 25 24 23 23 23 23 22 21 21 21 21 21 22 22 21 20 20 20 20 20 19 19 18 18 19 18 18 18 18 18 18 18 17 17 16 16 16 15 16 16 16 15 15 15
31 32 31 31 30 29 27 27 27 26 26 27 27 26 26 26 26 25 25 24 23 23 23 22 22 22 21 21 21 20 21 22 22 21 20 21 21 20 20 19 18 18 18 18 18 18 18 17 17 17 17 16 16 16 15 15 15 15 15 15 15 15 15
30 30 30 30 30 29 27 26 26 26 26 26 26 26 26 26 25 25 24 23 23 23 22 22 23 23 23 22 21 20 21 22 21 21 21 21 20 20 19 19 18 17 17 17 17 17 17 17 16 16 16 16 16 15 15 15 15 15 15 15 15 15 15
29 29 29 30 29 28 26 25 25 26 26 26 26 26 26 25 25 24 23 23 23 23 22 23 24 25 25 24 24 23 23 22 20 20 21 20 20 19 19 18 17 17 18 17 17 17 17 16 16 16 17 16 16 16 15 15 15 15 15 15 15 15 15
28 28 29 28 27 26 25 25 26 26 26 26 26 25 25 24 23 23 23 23 23 23 24 25 25 25 25 25 25 24 22 20 19 20 20 19 18 18 18 18 17 18 19 18 17 17 17 16 17 17 17 16 16 16 15 15 15 15 15 15 15 15 16
28 28 27 26 25 25 25 26 26 25 25 25 25 25 24 24 23 23 23 23 24 24 25 25 25 25 25 24 23 22 20 19 19 19 18 18 18 17 18 17 17 18 19 18 17 17 16 16 17 17 17 16 16 16 15 15 15 15 15 15 16 16 16
26 26 26 26 26 26 26 26 25 25 25 25 25 25 25 25 25 25 24 24 24 25 25 25 24 24 24 24 22 20 18 18 18 18 17 17 17 17 17 17 18 19 19 17 17 17 16 16 16 16 17 17 16 16 16 15 15 16 16 16 16 16 16
26 27 27 26 25 25 24 24 24 23 24 24 24 24 25 25 25 24 23 23 23 24 24 24 24 24 24 23 21 19 17 17 17 17 17 17 17 17 17 18 18 19 18 17 17 16 16 16 16 16 16 17 17 16 16 15 15 16 16 16 16 16 16
26 27 26 25 25 24 23 23 23 23 23 23 23 23 23 23 23 23 23 23 23 24 24 24 24 24 23 21 20 18 17 17 17 17 17 17 17 17 17 17 18 18 18 17 17 16 16 16 16 16 16 16 17 17 16 15 15 15 16 16 16 16 15
24 24 25 24 24 24 24 23 23 23 23 23 23 23 23 23 23 24 24 24 24 24 24 23 23 22 20 18 18 17 17 17 17 16 16 16 16 17 17 17 17 17 17 17 16 16 16 16 17 17 17 17 17 17 16 15 15 15 15 15 15 15 15
22 22 23 23 23 23 23 23 23 22 22 22 22 22 23 23 23 24 24 23 23 23 23 22 21 19 18 18 18 17 17 16 16 16 16 16 17 17 17 17 17 17 17 16 17 17 16 16 17 17 17 17 17 17 16 15 15 14 15 15 15 16 15
21 21 21 22 22 22 22 22 21 21 21 21 21 21 21 21 21 22 21 21 20 21 20 19 18 18 18 18 18 17 17 16 16 16 17 17 18 18 17 17 17 17 17 16 17 17 16 16 17 17 17 17 17 17 16 15 15 15 15 15 16 16 15
21 21 21 21 21 21 21 21 22 22 21 21 20 21 20 20 20 20 20 20 19 19 18 18 18 18 18 17 18 17 17 16 16 17 17 17 17 17 17 17 16 16 16 16 16 16 16 16 16 16 16 17 17 17 16 15 15 15 15 15 15 15 15
20 21 21 20 20 20 20 21 21 22 22 21 21 20 20 19 20 20 19 19 19 19 18 18 18 18 18 17 17 17 17 17 17 17 17 17 17 17 17 16 16 16 16 16 16 16 16 16 16 16 16 16 16 16 16 16 16 15 15 15 15 15 14
19 20 20 20 20 19 19 19 20 20 20 21 21 21 20 19 19 19 18 18 18 18 18 18 18 18 18 17 17 17 17 17 17 17 17 17 16 16 16 16 16 16 16 16 16 16 16 16 16 16 16 16 16 16 16 16 15 15 15 15 15 14 14

ECMWFFLT1_850_temp_006.txt.gz
Temp
32 31 31 30 29 29 28 28 28 27 27 26 26 25 25 24 24 24 23 23 22 22 21 21 22 22 22 21 21 21 21 22 22 22 21 21 20 20 20 20 20 20 20 20 20 20 20 20 19 19 20 20 20 20 20 19 19 18 19 19 18 17 17
33 31 30 29 29 28 28 28 28 28 27 26 26 26 25 24 24 24 23 23 22 22 22 21 22 22 22 21 21 20 21 22 22 22 22 21 20 20 20 21 21 20 20 20 20 21 21 20 20 20 20 20 20 20 19 19 19 19 19 19 18 18 17
33 31 30 29 29 29 28 28 28 28 27 27 26 26 25 25 24 24 24 23 23 22 22 21 22 22 22 21 21 21 21 21 22 22 22 21 20 20 20 21 21 20 20 21 21 21 21 21 21 20 20 20 20 20 20 20 20 19 19 18 17 17 18
33 31 31 30 30 30 29 29 28 28 27 27 27 26 25 25 24 24 24 23 23 22 22 21 21 22 22 22 21 21 21 21 21 21 22 22 21 21 21 21 20 20 21 21 21 22 22 22 21 21 20 20 19 20 20 20 19 19 18 17 16 17 17
33 32 32 31 31 30 30 29 29 28 28 28 27 26 26 25 24 24 24 24 23 23 22 22 21 21 22 22 22 21 21 21 21 21 22 22 22 22 22 21 20 20 21 22 22 22 22 22 21 21 20 20 19 20 20 19 18 18 18 17 17 17 17
32 32 32 31 32 31 30 29 29 29 28 28 28 27 26 25 24 24 24 24 23 23 22 22 21 21 22 22 22 21 21 21 21 21 22 22 22 22 22 22 21 21 22 22 22 22 22 22 21 21 20 20 20 20 20 19 18 17 17 17 17 18 17
32 32 32 32 32 31 30 30 29 29 29 28 28 27 26 25 25 25 24 24 23 23 22 22 21 22 22 22 21 21 21 21 21 21 22 22 22 22 23 22 22 22 22 22 22 22 22 22 21 21 21 20 20 20 20 19 19 18 17 17 18 18 18
34 32 32 32 32 32 31 30 30 30 29 29 28 27 26 26 25 25 25 24 24 23 23 22 22 22 22 22 22 21 21 21 21 21 22 22 22 22 23 22 22 22 22 22 22 22 22 22 21 21 21 21 20 20 20 19 18 18 18 18 18 18 18
35 33 33 33 33 33 32 31 31 30 30 29 28 28 27 26 26 25 25 25 24 24 23 23 23 22 22 22 22 21 21 21 21 21 21 21 22 22 23 23 23 23 22 22 22 22 22 22 21 21 21 20 20 20 20 19 18 18 18 18 17 17 18
36 34 34 34 33 33 32 31 31 30 30 29 29 28 27 26 26 26 25 25 25 24 24 23 23 23 22 22 22 22 22 22 21 21 21 21 21 22 23 23 23 23 23 22 22 22 22 22 21 21 21 20 20 20 20 19 19 18 18 18 18 18 18
34 33 33 33 33 32 31 31 30 30 29 29 29 29 28 27 26 26 26 26 25 25 24 24 24 23 23 22 22 22 22 22 22 22 21 21 21 22 23 23 23 23 23 23 22 22 22 22 22 21 21 20 21 20 20 20 19 19 19 18 18 18 18
33 32 32 32 32 32 31 31 31 31 30 29 29 29 28 27 27 26 26 26 26 26 25 25 24 24 23 23 23 22 22 22 22 22 22 21 21 21 22 23 23 23 23 23 23 22 22 22 22 22 21 21 21 21 20 20 20 19 19 19 19 19 18
32 32 32 32 32 31 31 31 31 32 31 30 29 29 28 28 27 27 27 27 26 26 26 25 25 24 23 23 23 23 22 22 23 22 22 22 22 22 22 23 22 23 23 23 23 22 22 22 22 22 22 21 21 22 21 20 19 19 19 19 19 19 18
32 32 32 32 32 31 31 30 30 31 31 30 29 28 28 28 27 27 27 27 27 27 26 26 25 25 24 24 23 23 23 23 23 23 22 22 22 22 22 23 22 22 23 24 23 23 22 23 22 22 22 21 21 22 21 20 20 19 19 19 19 19 18
34 33 32 32 31 31 31 31 31 31 30 30 29 28 28 28 27 27 27 27 27 27 27 26 26 25 25 24 24 23 23 23 23 23 22 22 22 22 22 23 22 22 23 24 24 23 23 23 23 22 22 21 21 21 21 20 20 20 20 20 19 19 19
35 35 34 33 31 31 31 31 31 30 30 29 29 29 29 28 28 28 28 27 27 27 28 27 26 26 26 25 24 24 24 23 23 23 23 23 23 23 23 23 22 22 22 23 24 23 23 22 22 22 22 22 21 21 21 20 20 20 20 20 20 19 19
36 36 35 34 32 31 31 31 31 31 30 30 29 29 29 29 28 28 28 28 28 28 28 28 27 27 26 26 25 25 24 24 23 23 23 23 23 23 23 23 23 23 22 22 23 23 22 21 21 21 22 22 21 21 21 21 21 21 20 20 19 19 19
35 35 35 34 33 32 31 31 31 31 31 30 30 30 29 29 29 28 28 28 28 28 28 28 28 27 27 26 26 25 25 24 23 23 23 23 23 23 22 22 22 22 22 22 22 22 22 21 21 21 21 21 21 21 21 21 21 21 20 19 19 18 18
35 35 34 34 34 33 32 31 31 31 31 30 30 30 30 29 29 28 28 28 28 28 28 28 28 28 27 26 26 25 25 24 23 23 23 23 23 22 22 22 22 22 22 22 22 22 21 21 21 21 20 20 20 20 20 20 20 20 19 18 18 18 18
35 35 35 34 34 33 32 31 30 30 31 30 30 30 30 29 29 29 28 28 28 28 28 28 28 28 27 27 26 26 25 24 24 23 23 23 22 22 22 22 22 23 22 22 22 21 21 20 20 20 19 19 19 18 19 19 20 20 19 18 18 18 17
35 35 35 35 34 33 32 31 30 30 30 30 29 29 29 29 29 29 28 28 28 28 28 28 28 28 27 27 26 26 25 25 25 24 24 23 23 23 23 22 22 22 22 21 21 21 20 20 20 19 19 18 18 18 18 18 19 19 18 17 17 17 17
35 35 35 35 34 33 32 31 31 30 29 29 29 29 29 29 28 28 28 28 28 28 28 28 28 28 27 27 26 25 25 25 25 25 24 24 23 23 23 22 22 22 21 21 21 20 20 20 19 19 19 18 18 18 18 18 17 18 17 17 17 17 17
35 35 35 35 34 33 32 32 32 31 30 29 29 29 29 28 28 28 28 28 28 28 28 28 28 27 27 26 26 26 25 25 25 25 24 24 24 23 23 22 21 21 21 21 20 20 19 19 19 19 19 19 18 18 18 17 17 17 17 17 17 17 16
35 35 35 34 34 34 33 32 32 32 30 30 29 29 29 28 28 28 28 28 28 28 27 27 27 27 26 26 26 25 25 25 24 24 24 24 23 23 22 21 21 20 20 20 20 19 19 18 18 18 18 18 18 18 18 17 17 17 17 17 17 16 16
35 35 34 34 34 34 33 32 32 31 31 30 29 29 29 28 28 28 27 27 27 27 27 27 27 27 26 25 25 24 24 24 24 24 24 23 22 21 21 20 20 20 20 20 19 19 18 18 18 18 18 17 17 17 17 17 17 17 16 16 16 16 15
34 34 34 33 33 34 33 32 31 31 30 30 29 29 29 28 28 28 27 27 27 27 26 26 26 26 25 24 23 23 23 24 24 23 23 22 21 21 20 20 19 19 19 19 18 18 18 18 18 18 17 17 16 16 16 16 16 16 16 16 15 15 15
32 32 33 33 33 34 33 31 30 30 30 30 29 29 28 28 28 27 27 27 27 26 26 25 25 25 24 23 23 23 24 24 23 22 22 21 20 20 19 19 19 19 19 18 18 18 18 18 18 18 18 17 16 16 16 16 16 16 16 15 15 15 15
30 30 31 31 31 32 32 30 30 29 29 29 28 28 28 28 27 27 27 26 26 25 25 24 24 24 23 23 23 23 23 23 22 21 20 20 20 19 19 19 19 18 18 18 18 19 19 18 18 18 18 17 17 16 16 16 16 16 16 15 15 15 15
29 29 29 30 30 30 30 29 28 28 28 28 28 28 28 27 27 27 26 26 25 25 24 24 23 23 22 22 22 22 22 21 21 21 20 20 20 20 20 20 19 18 18 18 18 18 18 18 18 17 17 17 17 16 16 16 16 16 16 16 15 15 16
28 28 28 29 29 28 28 27 27 27 28 27 27 27 27 27 26 26 25 25 24 24 24 23 22 22 22 22 21 21 21 21 22 22 23 23 22 21 20 19 18 18 18 18 18 18 18 18 17 17 17 17 16 16 16 16 16 16 16 16 16 16 16
27 27 27 28 27 26 26 26 27 27 27 27 27 27 26 26 25 24 24 24 23 23 23 23 22 22 22 20 20 20 21 22 22 22 22 21 20 20 19 19 18 18 18 18 18 18 17 17 17 17 17 17 17 17 16 16 16 16 16 16 16 16 16
26 26 25 25 25 25 25 25 26 26 26 26 26 26 25 25 24 24 23 22 22 23 23 22 21 20 19 19 19 20 21 21 20 19 19 19 19 19 19 18 18 18 17 17 17 17 17 17 16 17 17 17 17 17 17 16 16 16 16 16 16 16 16
23 23 22 21 21 22 23 23 24 24 24 23 23 24 23 23 23 23 22 21 21 23 23 22 22 21 21 21 21 20 20 19 18 18 18 18 18 18 18 18 17 17 17 17 17 17 17 16 16 16 17 17 17 17 17 16 17 16 16 16 16 17 16
21 21 20 19 20 21 21 22 23 23 22 22 22 22 21 21 22 22 21 22 23 24 24 25 25 24 24 23 22 20 19 18 18 18 18 18 18 18 17 17 17 17 17 17 17 17 17 16 16 16 17 17 17 17 17 17 17 17 17 17 17 17 16
18 18 18 19 19 20 20 20 21 21 21 21 21 21 21 21 21 21 22 23 24 25 25 25 24 23 21 21 20 19 18 17 18 18 18 18 18 17 17 17 17 17 17 17 17 17 17 17 17 17 17 17 17 17 17 17 16 17 17 17 16 16 16
18 18 18 18 18 19 19 19 19 20 20 20 21 21 21 22 22 21 22 24 24 25 24 23 21 20 19 19 18 18 17 17 18 18 18 17 17 17 17 17 17 17 17 17 17 17 17 17 17 17 17 18 18 18 17 17 16 16 16 16 16 16 16
19 19 19 19 18 19 19 19 20 21 21 21 21 21 21 21 21 21 22 23 23 23 23 22 20 19 19 18 18 18 17 17 18 17 17 17 17 17 17 17 17 17 17 17 17 17 17 17 17 17 17 17 17 17 17 17 16 16 16 16 16 15 15
20 20 20 19 19 19 19 20 20 21 21 21 21 21 21 21 21 20 21 22 22 21 22 21 21 19 18 18 18 18 18 17 17 17 17 17 17 17 17 18 17 17 17 17 17 17 17 17 17 17 17 17 17 17 17 17 17 16 16 16 15 15 15

ECMWFFLT1_850_temp_009.txt.gz
Temp
32 31 31 30 30 29 29 29 28 27 27 26 26 25 24 24 24 23 23 22 22 22 21 21 21 21 20 21 21 22 22 22 22 22 22 22 21 21 20 20 21 21 21 21 21 21 21 20 20 20 19 19 19 18 19 19 20 20 20 20 19 19 19
32 31 31 31 30 30 29 29 28 28 27 27 26 25 25 24 24 24 23 23 22 22 22 21 21 21 20 21 21 22 22 22 22 22 22 22 21 21 20 21 22 22 21 21 21 21 21 20 20 20 19 19 19 19 19 20 21 21 20 20 19 19 19
31 31 31 31 31 30 30 29 29 28 28 27 26 26 25 25 24 24 23 23 23 22 22 22 21 21 21 20 20 21 22 22 22 22 22 22 21 21 21 21 22 22 21 21 21 21 21 20 20 20 19 19 19 19 20 21 22 22 20 19 19 19 19
31 31 31 31 31 31 30 30 29 29 28 27 27 26 26 25 24 24 24 23 23 22 22 22 22 21 21 20 20 21 22 22 22 23 22 22 22 21 21 21 21 21 21 21 21 21 20 20 20 19 19 19 19 19 20 21 22 22 21 20 19 19 19
31 32 31 31 31 31 30 30 29 29 28 28 27 26 26 25 25 24 24 24 23 23 23 22 22 22 21 21 20 21 22 22 23 23 22 22 22 22 21 21 21 22 22 21 21 21 21 20 20 20 19 19 19 19 20 21 21 22 21 21 20 20 19
32 32 31 31 31 30 30 30 30 29 28 28 27 27 26 25 25 25 24 24 24 23 23 22 22 22 21 21 20 20 21 22 23 23 23 22 22 22 21 21 22 22 22 22 21 21 21 21 20 20 20 20 20 20 20 21 22 22 21 21 21 20 19
32 32 32 31 31 30 30 30 30 29 29 28 27 27 26 26 25 25 25 24 24 23 23 22 22 22 21 21 21 21 21 22 23 23 23 22 22 22 22 22 22 22 22 22 21 21 21 21 20 20 20 20 20 20 20 21 22 22 21 21 21 20 19
32 32 32 31 31 30 30 30 30 29 28 28 27 27 26 26 26 25 25 24 24 24 23 23 22 22 22 21 21 21 21 22 22 23 23 23 22 22 22 22 22 22 22 22 22 22 22 21 21 20 20 20 20 21 21 21 22 22 21 21 21 20 20
33 32 32 32 31 30 30 30 30 29 28 28 27 27 27 26 26 25 25 24 24 24 23 23 22 22 22 21 21 21 21 21 22 23 23 22 22 22 22 22 22 22 22 22 22 22 22 21 21 21 21 20 20 21 21 21 21 21 22 21 21 20 19
33 33 32 32 31 31 30 30 30 29 28 28 28 27 27 26 26 25 25 25 24 24 24 23 23 22 22 22 21 21 21 21 22 23 23 22 22 23 23 22 22 22 22 22 22 22 22 22 21 21 21 21 21 21 21 21 21 21 21 21 21 20 19
33 33 32 32 31 30 30 30 29 29 28 28 28 27 27 26 26 26 25 25 25 24 24 23 23 22 22 22 21 21 21 21 22 23 23 22 23 23 23 23 22 22 22 22 22 22 22 22 22 21 21 21 21 21 21 21 21 21 21 21 21 20 19
33 32 32 31 31 31 31 30 30 29 29 28 28 27 27 27 26 26 26 25 25 25 24 24 23 22 22 22 22 21 21 21 22 23 23 23 23 23 23 23 23 23 23 23 23 23 22 22 22 22 22 21 21 21 21 20 20 20 20 20 20 20 19
32 32 32 31 31 31 31 31 30 30 29 29 28 28 28 27 27 26 26 26 25 25 24 24 23 23 22 22 22 22 21 22 22 23 23 23 23 23 23 23 23 23 23 23 23 23 22 22 22 22 22 22 21 21 20 20 20 20 20 20 20 20 19
31 31 31 31 31 31 32 31 31 30 30 29 29 28 28 27 27 26 26 26 25 25 24 24 24 23 22 22 22 22 22 22 23 24 24 24 23 23 23 23 23 23 22 22 22 23 23 23 22 22 22 21 21 21 20 20 20 20 20 20 20 19 19
31 30 30 30 31 31 32 31 31 30 30 29 29 28 28 27 27 26 26 26 25 25 25 24 24 23 23 22 22 22 22 22 23 23 23 23 23 23 23 22 22 22 22 22 22 22 22 22 22 22 21 21 21 21 20 20 19 19 20 20 20 19 19
30 30 30 30 31 32 32 32 31 30 30 30 29 28 28 27 27 27 26 26 26 25 25 25 24 24 23 23 22 22 22 22 23 23 23 23 23 23 22 22 21 21 21 22 22 22 22 22 21 21 21 21 21 21 20 20 19 19 19 20 20 20 19
31 31 30 30 31 32 32 32 32 31 31 30 29 29 28 28 27 27 27 26 26 26 25 25 25 24 24 23 23 22 22 22 23 23 23 23 23 22 22 21 21 21 21 21 21 21 21 21 21 21 21 20 20 20 20 20 20 20 19 19 19 19 19
31 31 31 32 32 32 33 33 32 32 31 31 30 30 29 28 28 27 27 27 26 26 26 25 25 25 24 24 23 23 23 23 23 23 23 23 22 22 21 21 21 21 21 21 21 21 21 21 21 21 21 20 20 20 20 20 20 20 19 19 18 18 18
32 31 32 33 33 33 33 33 32 32 31 31 31 30 30 29 28 28 27 27 27 26 26 26 26 25 25 24 24 23 23 23 23 23 23 23 22 22 21 21 21 21 21 21 21 21 21 21 21 21 21 20 20 19 20 20 20 19 19 18 17 16 16
32 32 31 32 33 33 33 32 32 32 32 32 31 31 30 30 29 28 28 27 27 27 26 26 26 26 25 25 24 24 24 23 23 23 23 22 22 22 21 21 21 21 21 21 21 21 21 20 20 20 20 20 20 20 20 20 20 19 18 17 15 15 16
34 33 32 32 33 33 32 32 32 32 33 32 32 31 30 30 29 29 28 28 27 27 27 26 26 26 26 25 25 25 24 24 23 23 23 22 22 22 22 22 22 21 21 21 21 21 21 21 21 21 20 20 20 20 20 19 19 19 18 17 16 16 16
35 34 33 33 32 32 32 32 32 32 33 33 32 31 31 30 30 29 28 28 27 27 27 27 27 26 26 26 25 25 25 24 24 23 23 23 22 22 22 22 22 21 21 21 21 21 21 21 21 21 20 20 19 19 20 19 19 19 18 17 17 16 16
34 34 34 34 33 32 32 32 32 32 32 32 32 32 31 31 30 29 28 28 27 27 27 27 27 27 27 26 26 26 25 25 24 24 23 23 23 22 22 22 22 21 21 21 21 21 21 21 21 21 20 20 19 20 20 19 19 19 18 17 17 17 16
33 34 34 34 34 33 33 32 32 32 32 32 31 31 31 31 30 29 28 28 28 27 27 27 27 27 27 27 27 26 26 25 24 24 23 23 23 23 22 22 22 21 21 21 21 21 21 21 21 21 21 20 19 19 19 19 18 18 17 17 17 17 17
32 33 34 34 34 34 34 33 33 33 33 32 31 31 31 30 30 30 29 28 28 28 27 27 27 27 27 27 27 27 26 25 24 24 23 23 23 23 22 22 22 21 21 21 21 21 21 21 21 21 20 19 19 19 18 18 17 17 17 17 17 17 17
30 31 32 34 34 33 33 33 33 33 33 33 33 32 31 30 30 29 29 29 28 28 28 28 27 28 28 28 28 27 26 25 24 24 23 23 23 23 22 22 22 22 22 21 21 21 21 21 21 20 19 19 18 18 18 17 17 17 17 17 17 17 17
30 30 30 31 32 33 33 33 33 33 33 33 33 32 31 30 29 29 29 29 28 28 28 28 28 28 27 28 27 27 26 25 24 23 24 24 23 23 23 23 23 22 22 21 21 20 20 20 20 19 19 18 18 18 17 17 17 17 16 16 16 16 16
29 30 30 29 30 31 32 32 32 32 32 33 33 32 31 30 30 29 29 29 29 29 29 28 28 27 27 27 27 26 25 24 24 24 24 24 23 23 23 23 23 22 21 21 20 20 20 19 19 18 18 18 18 17 17 17 17 16 16 16 16 16 15
27 28 29 29 29 29 29 30 30 30 29 30 30 31 30 29 29 29 29 28 29 29 28 28 27 27 27 26 26 25 24 23 23 24 24 23 23 23 23 23 22 21 21 21 20 20 19 19 18 18 18 18 18 17 17 17 17 16 16 16 16 15 15
26 27 27 28 29 28 28 28 28 28 28 28 28 28 27 27 27 27 28 29 29 28 28 27 27 26 26 25 24 24 23 22 23 23 23 23 23 23 22 22 21 21 21 21 20 19 19 19 18 18 18 18 17 17 17 16 16 16 16 16 16 15 15
24 25 26 27 28 29 28 28 28 27 27 27 27 27 27 26 25 24 25 27 28 27 26 25 25 24 23 23 22 22 22 22 23 23 23 23 22 22 22 21 21 21 20 20 19 19 19 18 18 18 18 18 17 17 17 17 17 17 16 16 15 15 15
23 24 25 25 27 28 28 28 29 28 27 27 27 26 26 26 25 23 22 23 25 26 25 23 22 21 21 21 21 21 20 21 21 21 21 21 21 21 21 21 21 20 19 19 18 18 18 18 18 18 18 18 18 17 17 17 17 17 16 16 15 15 15
22 23 24 24 25 25 25 26 27 27 27 26 25 25 25 25 24 22 20 20 22 23 23 22 21 20 20 20 19 19 19 19 19 19 20 20 20 21 20 20 20 19 19 18 18 18 18 18 18 18 18 17 17 17 17 17 17 16 16 16 15 15 15
20 21 22 22 23 24 24 23 24 24 25 24 23 22 23 23 22 20 19 19 19 20 21 21 21 21 21 20 19 19 19 19 19 19 20 20 20 19 19 19 19 19 19 18 18 18 18 18 18 18 18 17 17 17 17 17 17 16 16 16 16 16 16
18 19 19 19 21 22 22 22 21 22 23 22 21 20 20 21 21 20 19 18 17 17 18 19 20 21 21 19 18 19 19 19 19 20 20 20 19 18 18 18 19 19 19 18 17 17 17 18 18 18 18 17 17 17 17 17 17 17 17 17 17 17 16
18 18 19 19 19 19 20 20 20 21 21 20 20 19 18 19 20 19 17 17 17 16 16 17 18 19 19 18 18 18 19 19 19 20 20 20 19 19 18 18 18 18 18 17 17 17 17 18 18 18 18 17 17 17 17 17 17 17 17 17 17 17 17
17 18 19 19 19 19 19 19 18 19 19 19 19 19 19 19 19 18 17 17 17 16 16 17 18 19 18 18 18 19 19 20 20 20 19 19 19 19 19 19 17 17 17 17 17 17 17 18 18 17 17 17 17 17 17 17 17 17 17 17 17 17 16
17 17 18 18 19 19 19 19 19 18 18 18 19 19 19 19 20 19 18 18 17 17 17 18 18 19 18 18 18 18 19 19 19 19 19 19 18 19 19 18 17 17 17 17 17 17 17 17 17 17 17 17 17 17 17 17 17 17 17 17 17 16 16

ECMWFFLT1_850_temp_012.txt.gz
Temp
28 28 27 27 27 26 26 26 26 26 25 25 25 25 24 24 24 23 23 23 23 22 22 22 21 21 21 22 22 22 21 21 22 23 23 22 22 22 21 21 22 22 21 21 21 21 21 20 20 20 20 19 19 19 19 19 19 19 19 19 19 19 19
28 28 28 27 27 27 27 27 26 26 26 25 25 25 25 24 24 23 23 23 23 23 22 22 22 21 21 22 22 22 22 22 22 23 23 22 22 22 22 21 22 22 22 21 21 21 21 20 20 20 20 19 19 19 20 20 19 19 19 19 19 19 19
28 28 28 28 28 27 27 27 27 27 26 26 25 25 25 25 24 24 23 23 23 22 22 22 22 22 21 22 22 22 22 22 22 22 23 23 22 22 22 21 21 22 21 21 21 21 21 20 20 20 20 19 19 20 20 20 19 19 19 19 19 19 19
29 29 29 28 28 28 28 28 27 27 27 26 26 26 26 25 25 24 24 24 23 23 23 22 22 22 21 22 22 22 23 23 23 22 22 22 22 22 22 21 21 21 21 21 21 21 21 20 20 20 20 20 19 20 20 19 19 19 19 19 19 19 19
30 29 29 28 28 28 28 28 28 27 27 27 27 26 26 25 25 24 24 23 24 23 24 23 23 22 22 22 22 22 23 23 23 22 22 22 22 22 22 21 21 21 21 21 21 21 21 20 20 20 20 20 19 20 20 19 19 19 19 19 19 20 20
30 30 29 29 28 28 28 28 28 28 28 27 27 26 26 25 24 24 24 23 23 23 24 24 23 22 22 22 22 22 23 23 23 22 21 22 22 22 22 22 21 22 21 21 21 21 21 21 21 21 20 20 19 19 19 19 19 19 20 20 20 20 20
30 30 30 29 29 29 28 29 29 29 29 28 27 26 26 25 25 24 24 23 23 23 23 23 23 23 23 22 22 22 22 23 23 23 22 21 22 22 22 22 21 22 21 21 21 21 21 21 21 21 21 20 20 19 19 19 19 19 20 20 21 21 21
31 30 30 30 30 29 29 29 29 29 28 27 27 26 26 25 25 24 24 24 23 23 23 23 23 23 23 23 23 22 22 23 23 23 22 22 22 22 22 22 22 21 21 21 21 21 21 21 21 21 20 20 20 19 19 19 19 19 20 20 21 21 21
31 31 31 31 30 30 30 29 29 29 28 27 27 27 26 25 25 25 24 24 24 24 24 23 23 23 23 23 23 23 22 22 22 22 22 22 22 22 22 22 22 21 21 21 21 22 21 21 21 21 20 20 20 19 19 19 19 19 20 20 21 21 21
31 31 31 31 31 30 30 30 29 29 28 27 27 27 26 26 25 25 25 24 24 24 24 23 23 23 23 23 23 23 22 22 22 22 22 22 22 22 22 22 22 22 22 21 22 22 22 21 21 21 20 20 20 20 19 19 19 19 19 20 21 21 21
31 31 31 31 30 30 30 29 29 28 28 28 27 27 26 26 25 25 25 24 24 24 23 23 23 23 23 23 23 23 22 22 22 22 22 22 22 23 22 22 22 22 22 22 22 22 22 21 21 21 21 20 20 20 20 20 19 20 20 20 21 21 21
31 31 31 31 31 30 30 29 29 28 29 28 28 27 27 26 26 25 25 25 24 24 23 23 23 23 23 23 23 23 23 23 23 23 22 22 23 23 22 22 22 22 22 22 22 22 22 21 21 21 21 21 20 20 20 20 20 20 20 20 20 21 21
31 31 31 31 31 30 30 29 29 29 29 28 28 27 27 27 26 26 25 25 24 24 23 23 23 23 23 23 23 23 23 23 23 23 23 23 23 23 23 22 22 22 22 22 22 22 22 21 21 21 21 21 20 20 20 20 19 20 20 20 20 20 21
30 31 31 31 31 30 30 29 29 29 28 28 28 27 27 27 27 26 26 25 25 24 24 23 23 23 23 23 23 23 23 23 24 24 24 23 23 22 22 22 22 21 21 21 21 22 22 22 21 21 21 21 21 20 20 20 19 19 19 19 20 20 20
31 30 30 30 30 30 30 29 29 29 28 28 28 27 27 27 27 26 26 25 25 24 24 24 23 23 23 23 23 23 23 23 23 24 24 23 23 22 22 22 21 21 21 21 21 21 21 21 21 21 21 20 20 20 20 20 19 19 19 19 19 20 20
32 31 30 30 30 30 30 30 30 29 29 28 28 27 27 27 27 26 26 25 25 25 25 24 24 23 23 23 23 23 23 23 23 24 24 23 23 23 22 21 21 20 20 20 21 21 21 21 20 20 20 20 20 20 20 19 19 19 19 19 19 20 20
32 31 30 30 30 29 30 30 30 29 29 29 29 28 28 28 28 27 26 26 25 25 25 24 24 24 23 23 24 24 23 23 23 23 23 23 23 23 22 21 20 20 20 20 20 20 20 20 20 20 20 20 20 20 20 20 19 19 19 19 19 19 19
31 31 30 29 29 29 29 29 29 28 29 29 29 29 28 29 28 27 27 26 26 26 25 25 24 24 24 24 24 24 23 23 23 23 23 23 23 22 21 20 20 19 19 19 20 20 20 20 20 20 20 20 20 20 20 20 19 19 19 19 19 19 19
31 32 32 31 30 30 29 29 29 29 29 30 30 29 29 29 29 28 28 27 27 26 25 25 24 24 24 24 24 24 24 24 23 23 23 23 23 22 21 20 19 19 19 19 20 20 20 20 20 20 20 20 20 20 20 20 19 19 19 19 19 18 18
33 34 33 32 32 31 30 30 30 30 30 31 31 31 31 31 30 30 30 28 27 26 25 25 25 24 25 24 24 24 24 24 24 23 23 23 22 21 21 20 20 19 19 19 20 20 20 20 20 20 20 20 21 20 20 20 20 20 19 19 18 18 18
31 32 32 33 33 32 31 30 30 31 31 31 32 32 31 31 31 30 29 28 27 26 26 25 25 25 25 24 24 24 24 24 24 24 23 22 22 21 21 20 20 19 20 20 20 20 20 20 20 20 20 20 20 20 20 20 20 20 19 18 18 17 17
29 29 30 32 34 34 33 32 32 32 32 32 32 32 32 31 31 30 29 28 27 26 26 26 25 25 25 25 24 24 24 25 24 24 23 22 22 21 21 20 20 20 20 20 20 20 20 20 20 20 20 21 20 20 20 20 20 20 19 18 18 17 17
30 30 30 30 32 33 34 34 33 33 32 33 32 32 32 32 31 30 29 28 27 27 26 26 25 25 25 25 25 25 24 25 25 24 23 22 22 22 21 21 21 21 21 20 20 20 20 20 20 21 21 21 21 21 20 20 20 19 19 18 17 17 17
29 30 31 31 30 31 32 33 33 33 33 33 33 32 32 32 31 30 29 28 27 27 26 26 26 26 25 25 25 25 25 24 25 24 23 23 23 22 22 21 21 22 21 21 21 21 21 21 21 20 20 21 21 21 20 20 20 19 19 18 18 17 16
28 29 30 31 31 31 31 32 32 32 32 33 32 32 32 31 30 29 28 28 28 27 26 26 26 26 26 26 26 26 25 24 24 24 24 24 23 23 22 22 22 22 22 21 21 21 21 21 21 21 21 21 21 20 20 20 20 19 19 18 17 17 17
28 28 29 30 31 31 31 32 32 32 32 32 33 33 32 31 30 28 28 28 28 27 27 27 27 28 28 28 27 26 25 25 24 24 24 24 24 23 23 23 23 23 22 22 21 21 21 21 21 21 21 21 20 20 20 19 19 19 18 18 17 17 17
28 28 28 28 29 30 31 31 32 32 31 31 32 31 31 31 31 30 30 29 29 28 29 29 29 29 29 28 27 26 26 25 25 25 25 24 24 23 23 23 23 23 23 22 22 21 21 21 21 21 21 21 20 20 19 19 19 18 18 18 17 17 17
28 28 29 28 28 28 29 30 31 31 30 29 29 28 28 28 28 29 29 29 28 29 29 29 29 29 29 28 27 26 26 25 25 25 25 24 24 23 22 23 23 23 23 23 22 22 21 21 21 21 21 20 20 20 19 19 18 18 18 18 17 17 16
28 28 28 29 28 28 27 27 29 29 28 28 28 28 27 27 26 27 27 26 27 27 27 27 27 27 27 27 26 26 26 25 25 25 24 24 23 22 22 23 23 23 22 22 21 21 21 20 20 20 20 20 20 19 19 18 18 17 18 18 17 17 16
27 27 28 28 28 27 27 26 27 27 27 27 27 27 26 26 26 26 26 26 26 26 26 26 26 26 26 26 25 26 25 25 25 24 24 23 23 22 22 22 22 21 20 20 20 20 20 19 19 19 20 20 19 19 18 17 17 17 17 17 17 16 16
24 25 26 27 27 27 27 27 27 27 26 26 26 26 26 26 26 25 25 25 25 25 25 26 26 26 26 25 25 25 25 25 24 24 23 23 22 21 21 21 21 20 19 19 19 20 20 20 19 19 19 19 19 18 17 17 17 17 17 17 16 16 15
22 22 23 24 25 26 26 26 27 27 27 27 27 26 26 26 26 26 25 25 25 25 25 25 25 26 26 26 25 25 25 25 24 23 23 22 21 21 21 21 21 19 19 19 20 20 20 19 18 18 18 19 18 18 17 17 17 17 17 16 16 15 15
20 20 21 21 22 23 24 25 25 26 26 27 27 28 27 27 28 28 28 27 27 26 25 24 24 25 26 26 26 26 26 25 24 23 22 22 21 20 20 20 20 19 20 21 20 20 19 18 17 17 18 18 17 17 17 17 17 17 16 16 16 15 15
18 19 19 20 20 21 22 23 23 24 24 24 25 26 27 28 28 29 29 29 28 27 25 24 24 25 25 25 26 26 26 25 24 23 21 21 20 20 20 20 20 21 21 22 21 21 21 19 17 17 18 17 17 17 17 17 17 17 17 16 16 16 15
17 17 18 18 18 19 20 21 22 23 23 23 23 24 25 25 26 27 27 27 26 25 25 24 24 24 24 23 23 23 24 24 23 22 21 20 20 20 20 21 22 22 21 21 21 22 21 19 18 18 17 17 17 18 17 17 17 17 17 16 16 16 16
16 17 17 17 17 18 19 19 20 21 21 21 21 21 22 23 23 24 25 25 25 25 25 25 24 24 23 23 21 20 20 21 20 20 20 20 20 21 21 21 21 21 20 20 20 20 19 18 18 18 18 17 18 18 18 18 17 17 17 16 16 16 16
16 17 17 17 17 17 17 17 18 18 19 19 19 19 19 20 21 21 22 23 23 23 24 24 23 22 22 22 21 20 19 18 18 20 20 20 20 20 20 20 19 19 19 18 18 18 18 18 18 18 17 18 18 18 18 17 17 17 17 16 16 17 16
16 17 17 17 18 18 17 17 17 17 17 17 17 17 17 18 18 19 19 20 20 20 21 22 22 21 20 20 20 20 20 19 19 20 20 20 20 19 19 19 18 17 17 18 18 18 17 17 17 17 17 17 18 17 17 17 17 17 17 17 17 17 17

ECMWFFLT1_850_temp_015.txt.gz
Temp
26 26 25 25 25 24 24 24 24 24 24 24 24 24 24 23 23 22 22 22 22 22 22 21 22 21 21 21 21 21 21 21 21 21 21 21 21 21 21 21 21 21 21 21 22 22 22 21 20 20 20 20 19 19 19 19 19 19 19 19 18 18 18
26 26 26 25 25 25 25 25 25 24 24 24 25 24 24 24 23 23 23 22 22 22 22 22 22 22 22 22 21 21 21 21 21 21 21 21 21 21 21 21 21 21 21 21 22 22 22 21 21 20 20 20 19 20 19 19 19 19 19 19 18 18 18
27 26 26 26 25 25 25 25 25 25 25 25 25 24 24 24 24 24 23 23 22 22 22 22 22 22 22 22 22 21 21 21 21 21 21 21 21 21 21 21 21 21 21 21 21 21 21 21 21 20 20 20 20 20 20 19 19 19 19 19 18 18 18
27 27 27 26 26 26 25 25 25 25 25 25 25 25 25 25 24 24 24 24 23 23 23 22 22 22 22 22 22 21 21 21 21 21 21 21 21 21 21 21 21 21 21 21 21 21 21 21 21 20 20 20 20 20 20 20 19 19 19 19 19 18 18
27 27 27 27 26 26 26 26 25 25 25 25 25 25 25 25 24 24 24 24 24 24 24 23 23 23 23 22 22 22 22 22 22 21 21 21 21 21 21 21 21 21 21 21 21 21 21 21 21 20 20 20 20 20 20 20 20 19 19 19 19 19 19
27 27 27 27 27 26 26 26 26 26 26 26 26 25 25 25 24 24 24 23 23 24 24 23 23 23 23 23 22 22 22 22 22 22 21 21 21 21 21 22 22 21 21 21 21 21 21 21 21 21 21 20 20 20 20 20 20 20 20 19 19 19 19
28 28 28 27 27 27 27 27 27 27 26 26 26 26 25 24 24 24 23 23 23 23 23 23 23 23 23 23 23 22 22 22 22 22 22 21 21 21 22 22 22 22 21 21 21 21 21 21 21 21 21 20 20 20 20 20 20 20 20 20 19 19 19
29 28 28 28 28 28 27 27 27 27 27 26 25 25 25 24 24 24 23 23 23 23 23 24 24 24 23 23 23 23 22 22 22 22 22 21 21 22 22 22 23 23 22 21 21 21 21 21 21 21 21 20 20 20 20 20 20 20 20 20 20 20 19
30 29 29 29 28 28 28 28 28 27 27 26 25 25 25 24 24 24 24 24 23 23 24 24 25 24 24 23 23 23 23 22 22 22 22 22 21 22 23 23 23 23 22 22 21 21 21 21 21 21 21 20 20 20 20 20 20 20 20 20 20 20 20
29 29 29 29 29 29 29 28 28 27 26 26 26 26 25 25 25 24 24 24 23 24 24 25 25 24 23 23 23 23 23 23 23 22 22 22 22 22 23 23 23 23 23 22 22 21 21 21 21 21 21 20 20 20 20 20 20 20 20 20 20 20 20
29 29 29 29 29 29 29 28 28 27 27 26 26 26 25 25 25 24 24 24 24 24 24 24 24 23 23 23 23 22 23 23 23 22 22 22 22 22 23 23 23 23 23 22 22 21 21 21 21 21 21 20 20 20 20 20 20 20 20 20 20 20 20
30 29 29 29 29 29 29 29 28 27 27 27 26 26 26 25 25 25 25 24 25 25 24 24 24 23 23 23 23 23 23 23 23 23 23 22 22 22 22 23 23 23 23 23 22 21 21 21 21 21 21 21 21 20 20 20 20 20 20 20 20 20 20
30 30 30 29 29 29 29 29 28 28 28 27 27 27 26 26 25 25 25 25 25 25 24 24 24 23 23 23 23 23 23 24 24 23 23 23 23 22 22 22 23 23 23 23 22 22 21 21 21 21 21 21 21 21 20 20 20 20 20 20 20 20 20
30 30 30 29 29 29 29 29 28 28 28 28 27 27 26 26 25 25 25 25 25 25 24 24 24 23 23 23 23 23 24 24 24 24 23 23 23 22 22 22 22 23 23 23 22 22 21 21 21 21 21 21 21 20 20 20 20 20 20 19 19 19 19
30 30 30 30 29 29 29 29 29 29 28 28 27 27 27 26 26 25 25 25 25 25 25 25 24 24 23 23 23 23 24 24 24 24 23 23 23 23 22 22 22 22 22 23 23 22 22 22 21 21 21 21 21 20 20 20 20 20 20 19 19 19 19
31 31 31 30 29 29 30 29 29 29 29 28 27 27 27 26 26 26 25 25 25 25 25 24 23 24 24 24 24 24 23 23 23 23 23 23 23 23 22 22 21 21 22 22 23 23 23 22 21 21 21 21 21 20 20 20 20 20 20 19 19 19 19
31 32 31 30 29 29 30 30 29 29 29 28 28 28 27 27 27 26 26 26 26 26 25 24 24 24 24 25 25 24 23 23 23 23 23 23 23 22 22 22 21 21 21 22 23 23 23 23 22 21 21 21 21 20 20 20 20 20 20 19 19 19 19
31 32 32 31 30 29 30 30 29 29 29 29 29 28 28 28 27 27 26 26 26 26 25 24 24 24 25 25 25 23 23 23 22 23 23 23 23 22 22 21 21 21 21 21 22 23 23 23 23 22 22 21 21 20 20 21 21 20 20 20 19 19 19
29 30 31 31 31 30 30 30 30 30 30 30 29 29 28 28 28 28 27 27 27 26 25 24 24 25 25 25 24 24 23 23 22 23 23 23 23 22 21 21 21 21 21 21 22 22 23 23 23 23 22 21 21 21 21 21 21 21 20 20 19 19 18
28 29 30 31 31 30 30 30 30 30 30 30 30 29 29 28 28 29 29 28 27 26 25 25 25 25 25 25 24 24 23 22 22 23 23 23 22 22 22 22 22 22 21 21 21 21 22 23 23 23 23 22 21 21 21 21 21 21 20 20 19 18 17
28 29 29 31 31 30 30 31 31 30 30 30 30 29 28 28 28 29 28 27 26 26 27 27 26 26 26 25 24 24 23 23 23 23 23 22 22 22 22 22 22 22 21 21 21 21 23 23 23 23 23 23 22 22 21 22 22 21 21 20 19 18 17
28 28 29 30 31 31 30 30 30 31 30 30 30 29 28 28 28 28 28 27 27 27 27 27 26 26 26 25 24 24 24 23 23 23 23 22 22 22 22 22 22 22 22 21 21 21 22 22 23 23 23 23 23 22 22 22 22 21 21 20 19 18 17
27 28 29 29 30 31 30 30 30 30 29 29 29 29 29 29 29 29 28 28 27 27 27 26 26 26 26 25 25 25 24 24 23 23 23 22 22 22 22 22 22 22 22 21 21 21 21 22 22 22 23 23 23 23 22 22 22 21 21 20 18 18 17
27 28 28 29 30 30 29 30 30 29 28 28 28 29 30 29 29 29 28 28 27 27 26 26 26 26 26 26 26 26 25 24 24 24 24 23 23 23 22 22 22 22 22 21 21 21 22 22 22 22 23 24 23 23 23 22 22 22 21 20 19 18 17
27 28 28 29 29 29 29 29 29 29 29 28 28 29 29 29 29 29 28 28 28 27 27 27 27 27 27 27 27 27 26 25 24 24 24 24 24 23 23 23 23 22 22 21 21 22 21 21 21 22 23 23 23 23 23 22 22 21 20 20 19 18 17
27 28 28 29 29 29 29 29 29 29 28 28 29 28 28 28 29 29 29 29 28 27 27 28 28 28 28 28 28 27 26 25 25 25 25 25 25 24 24 23 23 22 21 21 21 21 21 21 21 21 21 22 22 22 22 21 21 21 20 20 19 18 17
27 27 28 29 29 29 29 30 30 29 29 29 29 28 28 27 27 27 28 28 28 28 29 30 30 29 29 29 28 27 26 26 25 25 25 26 25 24 24 23 23 22 22 22 22 21 21 20 20 20 20 20 21 21 21 21 21 21 20 20 19 19 17
26 27 27 28 28 29 29 29 30 30 30 29 28 28 28 27 26 26 26 26 28 29 30 30 30 29 29 28 27 26 26 25 25 25 24 24 24 24 23 23 22 22 22 22 22 21 20 19 19 19 19 20 20 21 21 20 20 20 20 20 19 19 17
27 27 27 27 27 28 28 29 29 29 29 29 28 27 27 27 27 27 26 26 27 28 28 27 27 28 27 27 26 26 25 25 25 24 23 23 23 23 23 22 21 21 21 21 21 21 20 19 19 19 19 20 20 20 20 20 19 19 19 19 19 18 18
26 26 26 27 26 27 27 28 28 28 29 29 28 27 27 27 27 27 27 27 27 27 26 26 26 26 26 25 25 25 25 24 24 24 23 23 22 22 22 22 21 21 21 21 21 20 20 19 19 19 20 20 20 20 19 19 19 19 19 18 18 18 18
25 25 25 26 25 25 26 26 26 26 27 28 28 28 27 26 26 26 27 28 27 27 27 26 26 26 25 25 25 25 24 24 23 23 23 22 22 22 22 22 21 21 21 20 20 20 20 19 19 20 20 20 20 19 19 19 18 19 19 19 18 18 17
23 24 24 24 24 24 24 24 24 25 25 26 26 27 27 26 26 25 26 26 27 27 27 27 26 26 26 25 25 25 25 24 24 23 23 23 22 22 22 22 22 21 20 20 20 20 20 20 20 20 20 21 20 20 19 19 19 19 20 19 18 18 17
22 23 23 23 24 23 23 23 23 23 23 24 24 25 25 25 25 25 25 25 25 26 26 26 26 26 26 26 25 25 25 25 24 24 24 23 23 23 22 22 21 21 21 21 21 21 20 20 20 20 20 21 20 20 20 19 19 19 19 19 18 18 17
20 21 22 22 23 23 23 23 23 22 22 23 23 24 25 25 25 24 24 24 24 25 25 25 26 26 26 26 26 26 26 26 25 25 25 25 25 24 23 22 21 21 21 21 22 22 21 20 19 20 20 20 20 20 19 18 18 19 19 19 19 18 17
19 20 20 21 21 22 22 22 22 22 22 22 22 22 23 24 24 24 24 24 23 24 24 24 25 25 26 26 26 26 26 26 26 25 25 25 25 24 24 23 22 22 22 21 22 22 21 20 19 19 19 19 19 20 19 19 19 19 20 20 19 18 17
19 19 20 20 20 20 20 21 21 21 21 21 21 21 21 22 23 23 24 24 23 23 23 23 24 24 25 25 26 26 26 26 25 25 24 23 23 23 23 22 22 21 21 20 21 21 21 20 20 20 19 19 19 19 20 20 20 19 19 19 18 17 17
18 18 19 19 20 20 20 19 19 19 19 19 20 20 20 20 20 21 21 22 22 22 21 21 22 22 23 24 24 25 25 25 25 25 25 24 23 22 22 21 21 20 20 19 20 20 20 20 21 21 20 19 19 19 19 19 19 18 18 18 17 16 16
17 18 18 18 18 18 18 18 17 18 18 18 18 18 18 19 18 19 19 19 19 19 19 19 20 20 21 22 22 23 23 24 24 25 25 24 22 21 21 21 20 19 18 18 18 19 19 20 20 20 19 19 19 19 18 17 17 17 17 17 17 16 16

ECMWFFLT1_850_temp_021.txt.gz
Temp
25 24 24 23 23 23 23 24 26 26 26 26 26 26 25 24 24 23 24 24 23 22 22 22 22 22 22 23 22 22 22 22 22 22 22 22 22 22 23 23 22 22 22 22 22 22 22 22 21 21 21 21 21 20 20 19 19 19 19 19 19 19 19
25 25 24 24 23 23 24 24 25 26 27 27 27 26 25 25 25 25 25 24 24 24 23 23 22 22 23 23 23 23 22 22 22 22 22 22 22 22 22 22 22 22 22 22 22 22 22 21 21 21 21 21 21 21 20 20 19 19 19 19 19 19 19
26 25 25 24 24 24 24 24 24 25 26 27 27 27 26 26 26 26 25 25 25 25 24 23 23 23 23 23 23 23 22 22 22 22 22 22 22 22 22 22 22 22 22 22 22 22 22 21 21 21 21 21 21 21 20 20 20 19 19 19 19 19 19
26 26 25 25 25 25 24 24 25 25 25 26 27 28 28 28 27 26 26 25 26 26 25 25 24 23 23 23 23 23 23 22 22 22 22 22 22 22 22 22 22 22 22 22 22 22 22 22 21 21 21 21 21 21 20 20 20 20 19 19 19 19 19
27 26 26 25 25 24 24 24 25 25 25 26 27 28 28 28 28 27 26 25 25 26 26 26 25 24 23 23 23 23 23 23 23 23 22 22 22 22 22 22 22 22 22 22 22 22 22 22 22 21 21 21 21 21 21 21 20 20 19 19 19 19 20
28 26 26 26 25 25 25 25 25 25 26 26 26 27 28 28 27 27 27 26 25 25 25 24 25 25 25 24 24 24 23 23 23 23 22 22 22 22 22 22 22 22 22 22 22 22 22 22 22 21 21 21 21 21 21 21 21 20 20 19 19 19 20
29 28 27 27 27 26 26 25 25 25 25 26 25 26 27 26 26 27 27 27 26 25 24 24 24 24 25 25 24 24 24 24 23 23 22 22 22 22 22 22 22 22 22 22 22 22 22 22 22 22 21 21 21 21 21 21 21 21 20 20 20 20 20
30 29 29 28 28 27 26 26 26 25 25 25 25 25 25 25 25 26 26 27 27 26 25 24 24 24 25 24 24 25 25 24 24 23 23 22 22 22 22 22 22 22 22 22 22 22 22 22 22 22 22 21 21 21 21 21 21 21 21 20 20 20 20
30 29 28 28 27 27 26 26 27 25 24 25 25 25 25 25 24 25 26 26 26 26 26 26 25 25 25 25 25 25 24 24 24 24 23 23 22 22 22 22 22 22 22 22 22 22 22 22 22 22 22 21 21 21 21 21 21 21 21 20 20 20 20
30 29 28 27 26 27 27 26 26 26 25 25 25 25 25 25 25 25 25 25 25 26 27 26 25 25 26 26 25 24 24 23 23 23 23 23 22 22 22 22 22 22 22 22 22 22 22 22 22 21 22 21 21 21 21 21 21 21 21 21 20 20 20
31 30 29 28 28 27 27 26 26 26 26 25 25 25 25 25 25 25 25 25 25 26 26 25 25 25 26 26 25 24 24 24 24 23 23 23 22 22 22 22 22 22 22 22 22 22 22 22 22 21 21 22 22 21 21 21 21 21 21 21 21 21 21
30 30 30 30 29 28 27 27 27 27 26 26 26 25 25 25 25 25 25 26 26 25 25 24 24 25 25 25 24 24 25 25 24 24 24 23 23 23 23 23 23 23 23 23 22 22 22 22 22 22 22 22 22 22 21 21 21 21 21 21 21 21 21
30 30 30 30 30 28 27 27 27 27 27 27 26 26 26 26 26 25 25 26 26 25 24 24 25 25 25 25 25 25 25 26 25 25 25 24 24 24 24 24 23 23 23 23 23 22 22 22 22 22 22 22 22 22 22 21 21 21 21 21 21 21 21
30 31 32 31 30 30 29 28 28 27 28 27 27 27 26 26 26 26 26 26 26 25 25 25 25 25 25 25 25 25 26 26 26 26 25 25 25 25 25 25 24 24 24 24 23 23 23 22 22 22 22 22 22 22 22 22 21 21 21 21 21 21 21
30 31 32 32 32 31 31 30 29 28 28 28 27 27 26 26 26 26 26 26 26 26 26 26 26 26 25 25 25 26 26 26 25 26 26 25 25 25 25 25 24 24 24 24 24 23 23 23 22 22 22 22 22 22 22 22 22 22 22 22 21 21 21
30 32 32 32 32 32 32 31 30 29 29 28 28 27 27 27 27 27 26 26 26 26 26 26 27 27 25 25 25 26 25 25 25 25 25 25 25 25 25 25 25 25 25 24 24 24 23 23 22 22 22 22 22 22 22 22 22 22 22 22 22 21 21
32 32 32 32 32 32 32 32 31 29 28 28 29 28 28 27 27 27 27 26 26 27 26 26 27 27 26 26 26 25 25 25 25 25 25 25 24 25 25 25 25 25 25 25 24 24 23 23 23 22 22 22 22 22 22 22 23 23 22 22 22 22 21
32 32 32 32 32 32 32 32 31 30 29 29 29 28 28 28 28 27 27 27 27 27 27 27 27 27 27 27 26 25 25 24 24 25 25 25 25 24 25 25 25 25 25 25 24 24 24 23 23 22 22 22 22 22 22 23 23 23 23 22 22 22 21
32 32 32 32 32 32 33 32 32 31 30 30 29 29 29 29 28 28 28 28 27 27 26 26 27 27 27 26 25 25 24 24 24 25 25 25 25 24 24 24 25 25 25 25 25 24 24 24 23 23 22 22 22 23 23 23 23 23 23 23 22 22 22
31 32 32 32 33 33 32 32 32 32 31 31 30 29 29 28 28 29 29 28 27 26 25 26 26 26 26 26 25 25 24 24 24 25 25 25 24 24 24 25 25 25 25 24 24 24 24 24 23 23 23 22 22 23 23 23 23 23 23 23 22 22 21
31 31 31 32 32 33 32 32 32 33 32 31 30 28 28 28 28 28 28 27 27 27 26 26 25 25 25 25 24 24 24 24 25 25 25 25 24 24 24 24 25 25 25 24 24 24 23 23 24 23 23 23 23 23 23 23 23 24 23 23 23 22 21
30 30 31 31 32 32 32 32 32 32 32 31 30 29 28 28 28 27 27 27 27 27 27 26 25 25 25 25 24 24 24 24 24 24 24 24 24 23 24 24 24 24 24 24 24 24 22 22 23 24 23 23 23 23 22 22 23 24 23 23 23 22 21
29 29 30 30 31 32 32 31 31 31 30 31 31 30 29 28 27 27 26 26 27 27 26 26 26 26 26 26 26 25 25 25 24 24 24 23 23 23 24 24 24 24 24 24 24 24 23 22 22 22 22 23 23 23 22 22 23 24 23 23 22 21 20
27 27 28 29 30 30 30 30 30 30 30 30 31 30 29 28 27 27 26 26 26 26 26 26 26 26 26 26 26 26 26 25 25 24 24 24 24 24 24 24 24 24 24 24 24 24 23 23 21 20 20 22 23 23 23 22 23 23 23 22 22 21 20
25 25 26 27 28 29 29 29 30 29 29 30 29 29 28 28 27 27 26 26 26 26 26 26 27 27 27 26 26 26 26 26 25 25 24 24 24 24 24 24 24 24 24 24 23 23 23 22 20 19 20 21 21 22 23 23 22 23 23 22 22 21 20
23 24 25 26 27 28 28 29 29 29 29 29 28 28 27 27 27 26 26 26 26 26 26 27 27 27 27 26 26 26 26 25 25 25 25 25 25 24 23 23 23 23 23 23 23 22 22 21 20 20 20 20 19 20 22 23 22 22 23 22 22 21 21
22 23 24 25 26 27 27 28 28 28 28 28 28 27 27 26 26 26 26 26 26 26 26 26 26 26 26 25 25 25 24 24 24 25 25 25 24 24 23 23 23 23 23 23 22 21 21 20 20 20 20 19 19 19 21 23 23 23 23 23 22 22 21
21 21 22 23 24 25 26 27 27 27 27 27 27 27 27 26 25 25 25 25 25 25 25 25 26 26 25 25 25 24 24 24 24 24 24 24 23 23 23 22 22 22 22 22 22 21 20 20 20 20 19 19 19 18 20 22 23 24 23 23 23 22 21
20 20 21 21 22 23 25 26 27 27 27 26 26 26 26 25 25 24 24 24 24 24 24 25 25 25 25 25 25 25 25 25 24 24 23 23 23 23 22 22 22 22 22 22 22 21 21 21 21 20 19 19 19 19 19 20 21 23 23 22 22 22 21
19 19 20 20 21 23 24 25 26 26 26 26 26 26 25 25 24 24 23 23 24 24 24 24 24 24 24 24 24 24 24 24 24 24 24 23 23 23 22 22 22 22 22 22 22 21 21 21 20 19 19 20 19 19 19 19 19 21 21 20 20 20 21
17 18 19 20 21 22 23 24 25 25 25 24 24 24 24 24 24 24 23 23 23 24 24 24 23 23 23 23 23 23 23 23 24 23 23 23 23 23 22 22 22 22 22 22 21 21 20 20 19 19 20 21 20 20 19 18 18 19 19 18 18 18 19
16 17 18 19 20 21 22 23 23 24 24 23 23 23 23 23 23 23 23 23 23 23 23 24 23 23 23 23 22 22 22 22 22 23 23 23 23 23 23 22 22 22 22 22 21 21 21 20 20 20 20 20 20 20 19 19 19 19 19 18 18 18 18
16 17 18 18 19 19 20 21 22 22 23 23 22 22 22 22 22 22 22 22 23 23 23 23 23 23 23 23 22 22 22 22 22 22 22 22 22 22 22 22 22 21 21 21 21 21 20 20 21 20 20 20 20 19 19 19 19 20 20 19 18 19 19
15 16 16 17 17 17 18 20 21 21 22 22 22 22 22 22 22 22 22 22 22 22 23 23 23 23 23 22 22 22 22 21 21 21 21 21 21 21 21 21 21 21 21 21 21 21 21 21 21 21 22 22 21 20 19 19 20 21 21 20 19 18 18
15 15 15 16 16 16 17 18 20 21 21 21 21 21 22 22 22 21 22 22 22 22 22 22 22 22 22 21 21 21 21 21 21 21 21 21 21 21 21 21 21 21 21 21 21 21 21 21 22 22 22 22 22 21 21 22 23 24 23 21 20 19 19
15 15 15 15 16 16 16 16 18 19 20 20 20 20 21 21 21 21 21 21 22 22 21 21 21 21 21 21 21 20 20 20 20 21 21 21 21 21 21 21 21 20 20 20 20 20 20 20 20 21 21 21 21 22 22 22 23 24 22 20 20 20 20
15 15 15 15 15 15 15 15 16 17 18 18 18 19 19 19 20 20 20 20 20 21 21 21 21 21 21 21 21 21 21 21 21 21 20 20 20 20 21 21 21 20 20 20 20 20 20 20 19 19 19 19 19 20 20 20 20 21 21 21 21 20 19
15 15 15 15 15 16 16 15 16 16 16 16 17 18 18 18 19 19 19 19 19 20 20 20 20 21 21 21 21 21 21 21 21 21 21 21 21 21 21 20 20 20 20 20 20 20 19 19 19 19 19 19 19 19 19 19 19 19 19 20 20 18 18

ECMWFFLT1_850_temp_024.txt.gz
Temp
30 29 28 27 27 26 26 25 24 24 23 23 23 24 24 24 24 24 24 25 25 24 24 24 23 23 23 23 23 23 23 23 23 22 22 22 22 22 23 23 23 23 23 23 23 23 23 22 22 22 22 22 21 21 21 20 20 20 20 20 20 19 19
31 30 29 28 27 26 26 25 24 24 24 23 24 24 24 25 25 25 25 25 25 25 25 24 24 23 23 23 23 23 23 23 23 22 22 23 23 23 23 23 23 23 23 23 23 23 23 22 22 22 22 22 21 21 21 20 20 20 20 20 20 20 19
32 31 30 29 28 27 26 25 25 24 24 24 24 24 24 25 26 26 26 26 26 25 25 25 25 24 24 23 23 24 23 23 23 23 23 23 23 23 23 23 23 23 23 23 23 23 23 23 23 22 22 22 21 21 21 21 20 20 20 20 20 20 20
32 32 31 29 28 27 26 26 25 25 25 25 26 26 26 26 27 27 27 27 26 26 26 25 25 25 24 24 24 24 24 24 23 23 24 24 23 23 23 23 23 23 23 23 23 23 23 23 23 22 22 22 21 21 21 21 21 20 20 21 21 20 20
32 31 31 30 29 27 27 26 25 25 25 25 26 27 27 27 26 27 27 27 27 27 27 26 26 26 25 25 25 25 25 24 24 24 24 24 23 23 23 23 23 23 23 23 23 23 23 23 23 23 22 22 22 21 21 21 21 21 21 21 21 21 20
32 31 31 30 29 28 27 27 26 26 26 26 26 26 26 25 25 26 27 27 27 27 27 27 26 26 26 26 25 25 25 25 25 24 24 24 23 23 23 23 23 23 23 23 23 23 23 23 23 22 22 22 22 22 21 21 21 21 21 21 21 21 21
33 32 31 30 30 29 28 27 27 27 26 26 26 25 25 24 24 25 25 26 27 27 27 27 27 27 26 26 26 26 26 25 25 25 25 24 24 23 23 23 23 23 23 23 23 23 23 23 23 23 22 22 22 22 22 22 22 22 21 21 21 21 21
34 32 31 30 30 30 29 28 28 28 27 26 26 26 25 25 25 24 24 25 26 26 27 27 27 27 27 27 27 26 26 26 26 25 25 25 24 24 24 23 23 23 23 23 23 23 23 23 23 23 22 22 22 22 22 22 22 22 22 21 21 21 21
34 32 31 30 30 30 30 29 28 28 27 27 26 26 26 25 25 25 25 25 25 25 26 27 27 27 27 27 27 27 27 26 26 26 26 25 25 25 25 24 24 24 23 23 23 23 23 23 23 23 22 22 22 22 22 22 22 22 22 21 21 21 21
33 31 30 30 30 30 30 29 28 28 27 27 26 26 26 26 25 25 26 26 25 26 26 26 26 26 27 28 28 27 27 27 26 26 26 26 26 26 25 25 25 24 24 24 24 23 23 23 23 22 22 22 22 22 22 22 22 22 22 22 22 21 21
31 30 29 29 29 29 29 29 28 28 27 27 26 26 26 26 25 25 26 26 26 26 26 25 25 25 27 28 28 27 27 27 27 26 26 26 26 26 26 25 25 25 25 25 24 24 23 23 23 22 22 22 22 22 22 22 22 22 22 22 22 21 21
30 29 28 29 29 28 28 28 28 28 28 27 27 26 26 26 26 25 25 25 25 26 25 25 25 25 26 27 28 27 27 27 27 27 27 26 26 26 25 25 25 24 25 25 25 24 23 23 23 23 23 22 22 22 22 22 22 22 22 22 22 22 21
30 29 28 28 29 29 28 28 28 28 28 28 27 26 26 26 26 26 25 25 25 25 25 25 25 25 25 26 27 27 28 28 28 27 27 27 26 26 25 25 25 25 24 25 25 24 24 23 23 23 23 23 22 22 22 22 22 22 22 22 22 22 22
31 31 30 29 29 29 29 29 29 29 28 28 27 26 26 26 26 26 26 25 25 25 25 25 24 24 25 25 26 27 28 29 28 28 27 27 26 26 25 25 25 25 24 23 24 25 24 24 24 24 23 23 22 22 22 22 22 22 23 22 22 22 22
32 33 32 31 29 29 30 30 29 30 29 29 27 26 26 26 26 26 25 25 25 25 25 25 24 24 25 25 26 27 28 27 27 28 28 27 26 26 26 25 25 25 24 23 24 25 24 24 24 24 24 23 23 22 22 22 22 22 23 23 22 22 22
33 33 33 33 31 30 31 31 31 31 30 30 29 27 26 26 26 26 25 25 25 25 25 25 24 24 25 25 26 26 26 26 27 27 27 27 27 27 26 26 25 24 24 23 24 24 24 24 23 24 24 23 23 23 22 22 22 22 23 23 23 22 22
33 33 33 33 32 32 32 32 32 32 31 31 31 29 28 27 26 26 26 25 25 25 25 25 24 24 25 25 25 25 25 26 27 27 27 28 27 26 26 26 25 24 24 23 23 24 24 24 23 23 23 23 23 23 23 22 22 22 23 23 23 23 22
32 32 32 32 32 32 32 32 32 32 32 32 32 31 30 28 27 26 26 26 25 25 25 25 25 25 25 25 24 24 25 26 27 27 27 27 26 26 25 25 24 24 23 23 23 23 24 24 23 23 23 22 23 23 23 23 22 22 23 24 24 23 23
31 31 32 32 31 31 31 32 32 32 32 31 31 32 31 30 28 28 27 26 25 25 25 25 25 25 25 25 24 25 26 26 27 27 27 26 26 25 25 25 25 24 24 24 23 23 23 23 23 22 22 22 22 22 23 23 23 23 23 23 24 24 23
30 30 31 31 31 30 30 31 31 31 32 31 31 31 30 30 29 29 27 26 26 26 25 25 25 25 25 25 25 25 26 26 27 27 26 26 25 25 25 25 25 25 24 24 23 23 22 21 21 21 20 21 21 20 22 23 23 23 23 23 23 24 23
30 30 30 30 30 30 30 31 31 31 31 31 31 30 29 29 28 27 26 26 26 26 26 25 25 25 25 26 26 26 27 27 27 27 26 26 25 25 25 25 25 25 24 23 23 22 21 20 21 20 19 20 20 19 20 21 22 23 23 23 23 23 23
30 29 29 29 29 29 30 30 30 30 31 31 31 30 30 28 27 26 26 26 26 26 26 26 25 25 25 26 27 28 28 28 27 27 26 26 25 25 25 25 25 25 24 23 22 22 21 20 21 20 19 20 20 20 20 20 21 23 23 23 23 23 23
28 28 27 27 27 28 29 30 30 30 30 31 31 30 30 28 27 26 26 26 26 25 25 25 26 26 26 27 28 28 28 27 27 27 26 25 25 25 25 25 25 24 24 23 22 21 22 22 21 20 19 20 20 21 20 20 20 22 23 23 23 23 23
26 26 26 26 27 28 28 29 29 30 30 30 30 30 30 28 27 26 26 26 26 25 24 25 26 27 27 27 27 27 27 26 26 26 26 25 25 25 25 25 24 24 23 23 23 22 22 22 21 20 20 20 20 20 20 20 20 21 21 22 23 23 24
24 24 24 25 26 26 27 28 29 29 29 29 29 30 30 29 27 26 26 26 26 25 24 25 26 26 26 26 26 25 26 26 26 26 26 26 26 25 25 24 23 23 23 23 23 22 21 21 21 21 21 20 20 20 20 20 20 20 21 22 22 23 23
22 22 23 24 24 25 26 27 27 27 27 28 29 30 30 29 27 26 25 25 25 25 25 25 25 26 26 26 26 26 26 26 27 27 27 26 26 25 24 24 24 23 23 23 22 22 21 21 21 21 21 21 20 20 20 20 20 20 20 21 21 22 22
21 21 22 22 23 25 25 25 26 26 26 27 29 29 29 29 28 26 25 25 25 26 25 25 25 26 26 26 26 26 26 27 27 26 26 25 25 24 24 24 23 23 23 23 22 21 21 21 21 21 21 21 21 21 21 20 20 20 20 20 20 21 22
20 20 20 21 22 23 22 23 25 25 25 26 27 28 29 29 27 26 26 25 25 26 25 25 25 25 26 26 26 26 26 26 26 25 25 25 24 24 24 23 23 23 23 22 22 21 21 21 21 21 21 21 21 21 21 21 20 20 20 19 19 20 21
19 19 19 19 20 20 20 21 22 24 25 25 25 26 27 27 27 26 26 25 25 25 24 24 23 24 24 25 25 25 25 25 25 25 25 25 24 24 24 24 23 23 23 22 22 21 21 21 21 21 21 21 21 21 21 21 20 20 20 20 20 19 20
18 18 19 18 18 18 18 19 20 22 23 24 25 24 24 24 25 25 25 25 25 25 24 24 23 23 24 24 24 24 24 24 24 24 24 24 24 24 24 23 23 22 22 22 21 21 21 21 21 21 21 21 21 21 20 20 20 20 20 20 20 20 20
18 18 18 18 17 18 18 18 18 19 20 21 23 23 23 23 24 24 24 25 25 25 24 24 24 24 24 24 24 24 23 23 23 23 24 24 23 23 23 23 22 22 22 21 21 20 20 20 21 21 21 20 21 21 20 20 20 20 20 20 20 21 21
17 18 18 18 17 17 18 18 18 18 18 19 20 21 22 22 23 23 24 24 24 24 24 24 24 24 24 24 24 23 23 23 22 22 23 23 22 22 22 22 22 21 21 21 20 20 20 20 21 21 21 20 21 21 21 20 20 20 20 20 20 20 20
17 17 17 17 17 17 17 18 17 17 17 17 18 18 19 20 21 21 22 22 23 23 23 24 24 23 23 23 23 23 23 22 22 21 21 22 22 21 21 21 21 21 21 21 21 21 21 20 21 21 21 21 21 21 20 20 20 20 20 20 20 19 19
17 17 17 17 17 17 17 17 17 17 17 17 17 18 18 18 18 19 20 20 21 21 22 22 23 23 23 23 22 22 22 22 22 22 21 21 21 21 21 21 21 21 21 21 21 21 21 21 21 21 21 21 21 21 21 20 20 20 20 21 20 20 19
16 17 17 17 17 16 16 16 16 17 17 17 17 17 17 17 17 18 18 19 19 20 20 21 22 22 22 22 21 21 22 21 21 22 21 21 21 21 21 21 21 21 21 21 21 21 21 21 21 21 21 21 21 21 21 21 21 20 20 20 21 21 20
16 17 17 17 16 16 16 16 16 16 16 16 16 16 17 17 17 17 17 18 18 19 19 19 20 20 20 20 20 21 21 21 20 21 21 21 20 20 21 21 21 21 21 21 21 21 21 21 21 21 21 22 21 21 21 21 21 21 20 20 20 21 21
16 16 16 16 16 16 16 16 16 16 16 16 16 16 16 17 17 17 17 17 18 18 18 19 20 20 20 21 21 21 21 21 21 21 21 20 20 20 20 20 20 21 21 21 21 21 21 20 20 20 20 20 20 21 21 21 21 20 20 20 20 20 20
15 15 16 16 16 16 17 17 17 17 16 16 16 16 16 16 17 17 17 17 18 18 18 19 20 20 20 21 21 22 22 22 22 22 22 21 21 21 21 21 20 20 20 21 21 21 21 21 20 20 20 20 19 19 19 20 20 20 20 20 20 20 20

ECMWFFLT1_850_temp_027.txt.gz
Temp
32 33 32 31 30 29 29 28 27 26 26 25 24 24 24 24 23 23 22 24 25 25 25 25 24 24 23 23 23 23 23 23 23 23 23 22 22 22 21 21 21 22 22 21 22 22 23 22 21 20 21 22 22 22 21 21 21 21 21 20 20 20 20
32 33 33 31 30 29 29 28 27 26 26 25 25 24 24 24 24 23 23 24 25 26 26 25 25 25 24 24 24 23 24 24 23 23 23 23 23 23 22 22 21 22 22 22 21 21 22 22 22 22 22 22 23 22 21 21 21 21 21 21 20 20 20
33 33 33 32 31 30 29 28 27 26 26 26 25 25 24 24 24 24 24 24 25 26 26 26 25 25 25 24 24 24 24 24 24 24 23 23 23 23 23 22 22 22 22 23 22 21 21 22 23 23 22 22 23 22 22 21 21 21 21 21 20 20 20
33 34 34 32 31 30 29 29 27 27 26 26 25 25 25 24 24 24 24 25 25 26 26 26 26 25 25 25 24 24 24 24 24 24 24 24 23 23 23 23 23 23 23 23 23 22 21 21 22 23 23 22 22 22 22 22 21 21 21 21 21 20 20
34 34 34 33 32 31 30 29 28 27 27 27 26 25 25 24 24 24 24 25 26 27 27 27 26 26 25 25 25 25 25 25 24 24 24 24 23 23 23 23 24 24 24 23 23 23 23 22 21 22 23 23 23 22 22 22 22 21 21 21 21 21 21
35 34 34 34 33 31 30 29 29 28 27 27 27 26 25 25 24 24 24 24 25 26 27 27 26 26 26 26 25 25 25 25 25 25 24 24 24 23 24 24 24 24 24 24 23 23 23 23 22 22 22 23 23 22 22 22 22 22 22 21 21 21 21
35 35 34 34 33 32 30 30 29 29 28 28 27 26 26 25 25 25 24 24 25 25 26 26 26 26 26 26 26 25 25 25 25 25 25 24 24 24 24 24 24 24 24 24 24 24 24 24 23 22 22 22 23 22 22 22 22 22 22 22 21 21 21
35 34 34 33 33 32 31 31 30 29 29 28 28 27 26 26 26 25 25 25 25 25 25 26 27 27 27 27 26 26 26 26 25 25 25 25 25 24 24 24 25 25 25 25 25 24 24 24 24 23 23 22 22 22 22 22 22 22 22 22 22 22 21
35 34 34 34 33 33 32 31 31 30 29 29 28 28 27 26 26 26 26 25 25 25 25 25 26 27 27 27 27 26 26 26 26 26 26 25 25 25 25 25 25 25 25 25 25 25 24 24 24 24 23 23 22 22 22 22 23 23 22 22 22 22 22
35 35 34 34 34 34 33 31 31 30 29 29 28 28 28 27 27 26 26 26 26 26 26 26 25 25 26 28 27 27 27 26 26 26 26 26 26 25 25 25 25 25 26 25 25 25 25 24 24 23 23 23 23 23 23 23 23 23 23 22 22 22 22
34 34 33 33 33 34 33 32 31 30 30 29 28 28 28 27 27 27 27 27 26 26 26 26 25 25 25 27 28 27 27 27 27 26 26 26 26 26 26 26 25 25 26 26 25 25 24 24 24 24 24 24 24 23 23 23 23 23 23 23 23 22 22
32 32 32 32 32 32 32 32 31 30 29 29 28 28 28 28 27 27 27 27 27 27 27 26 26 25 25 26 27 27 27 27 27 27 27 27 27 26 26 26 25 24 25 26 26 25 24 24 25 25 24 24 24 24 23 23 23 23 23 23 23 22 22
32 31 31 31 31 31 31 31 31 30 29 29 28 28 28 28 28 28 28 27 27 28 27 27 26 26 25 25 26 27 28 28 28 27 27 27 27 26 26 26 25 24 24 25 25 25 24 24 24 25 25 25 25 24 24 24 23 23 23 23 23 22 23
33 32 31 31 31 30 30 30 30 29 28 28 29 28 28 28 28 28 28 28 28 28 28 27 26 26 25 25 25 26 27 28 28 28 28 27 27 27 26 26 25 24 24 24 24 24 24 23 23 24 25 25 25 24 24 24 23 23 23 23 23 23 22
34 34 33 32 30 30 30 29 29 29 28 28 28 28 28 28 28 28 28 28 28 28 28 28 27 26 26 25 25 26 26 27 27 28 28 27 27 27 27 26 26 25 24 23 23 23 24 23 23 23 24 24 24 24 24 24 23 23 23 23 23 23 22
34 34 34 33 31 30 30 29 29 29 29 28 28 28 28 28 28 28 28 28 27 28 28 28 27 26 26 25 25 26 26 26 26 27 27 27 27 28 28 27 26 25 25 24 23 23 23 23 22 22 22 23 23 24 24 24 24 24 23 23 23 23 23
33 33 34 34 32 31 31 30 30 30 30 30 29 29 28 28 28 28 28 28 28 27 28 28 27 26 26 25 25 25 25 26 26 26 27 27 28 28 28 27 26 26 25 24 23 23 23 23 22 22 21 21 22 23 23 24 24 24 24 24 23 23 23
32 32 33 33 33 32 31 30 30 30 31 31 30 30 29 28 28 28 28 28 28 28 27 28 27 27 26 25 25 25 25 26 26 26 27 27 27 27 27 26 26 25 25 25 24 23 23 23 23 23 22 21 22 22 22 23 24 24 24 24 24 23 23
32 32 32 32 32 32 32 32 31 30 30 30 30 29 29 29 28 28 28 28 28 28 28 27 27 27 26 25 25 25 25 25 26 27 27 27 27 27 26 26 26 26 25 25 24 24 24 24 24 24 23 22 22 22 22 22 23 25 24 24 24 24 23
31 31 32 31 32 32 32 32 31 30 30 30 30 30 30 29 29 28 28 28 28 28 28 27 27 27 26 25 25 25 24 25 26 26 27 27 26 26 26 26 26 26 25 25 24 24 24 24 24 23 23 23 22 22 22 22 22 23 24 24 24 24 24
31 31 32 31 31 30 30 30 29 29 29 29 30 30 30 30 29 28 28 28 28 27 27 27 27 27 26 26 25 25 24 25 25 26 26 26 25 26 26 26 26 26 25 24 23 23 23 23 23 23 23 23 22 22 22 22 22 22 23 24 24 24 24
32 32 32 32 30 29 28 29 29 28 29 29 29 29 30 30 30 29 29 28 28 27 27 27 27 27 27 26 25 25 24 24 25 25 25 25 25 26 26 26 25 25 24 23 22 22 22 22 22 22 22 22 22 22 22 22 21 21 22 23 24 24 24
32 32 31 30 29 28 28 28 27 27 28 29 29 29 29 30 30 30 30 29 28 28 27 27 27 27 27 26 25 25 24 24 24 25 25 25 25 26 26 25 24 24 23 23 22 21 21 22 22 21 21 21 21 22 22 22 21 21 21 22 22 23 23
29 29 28 27 27 27 26 26 26 26 27 28 28 28 28 29 30 30 29 29 28 28 27 27 26 26 26 26 25 24 24 24 24 24 25 25 26 26 25 24 23 23 23 23 22 22 22 22 22 22 22 21 21 22 22 22 22 21 21 21 21 22 23
26 26 26 26 26 25 25 25 26 26 27 28 27 27 27 28 29 29 29 29 28 28 27 27 26 26 26 26 25 24 24 24 24 24 25 25 25 24 24 23 23 23 23 23 23 22 22 22 22 22 22 22 22 21 22 22 22 21 21 21 21 21 21
24 24 24 25 25 24 24 25 25 25 26 26 26 26 26 26 27 28 28 28 28 28 27 27 26 26 25 25 25 24 24 24 24 24 24 24 24 24 24 24 23 23 23 23 23 22 22 22 22 22 22 22 22 22 22 22 22 21 22 22 21 20 20
23 23 24 24 23 23 24 24 24 23 24 25 25 26 26 26 26 26 27 27 27 28 28 27 26 25 25 25 25 24 24 24 24 24 24 24 24 24 24 24 23 23 23 23 22 22 22 22 22 22 22 22 22 22 22 22 22 22 22 22 22 21 20
22 22 23 23 22 22 22 23 23 22 23 23 24 25 25 25 25 25 26 26 26 27 27 27 26 25 25 25 24 24 24 24 24 24 24 24 24 24 23 23 23 22 22 22 22 22 22 22 22 22 22 22 22 22 22 22 22 22 22 22 22 21 20
21 21 22 22 22 21 21 21 21 21 22 22 22 23 24 25 25 25 25 25 25 25 26 26 26 25 24 24 24 24 24 24 23 24 24 24 23 23 23 23 22 22 22 22 22 22 22 22 22 22 22 22 22 22 22 22 22 22 22 22 22 21 21
21 21 21 22 22 21 20 20 20 20 21 21 21 23 24 24 24 24 24 24 24 24 25 26 25 25 24 24 24 24 24 24 23 23 23 23 23 23 23 23 23 22 22 22 22 22 22 22 22 22 22 22 22 23 23 23 22 22 22 22 22 21 21
20 20 20 21 21 20 20 21 20 20 20 20 20 22 23 23 23 23 23 23 23 23 24 24 24 24 23 23 23 23 23 24 23 22 22 22 22 22 22 22 22 22 22 22 22 22 22 22 22 22 22 22 22 23 23 23 23 23 22 22 22 22 21
19 19 20 20 20 20 20 21 20 20 20 20 20 21 22 22 22 21 21 22 22 22 23 23 23 23 23 23 23 23 23 23 23 22 22 22 22 22 22 22 22 22 22 22 22 22 22 22 22 22 22 22 22 22 23 23 23 23 23 22 22 22 22
19 19 19 19 19 19 19 20 20 19 19 19 19 20 20 21 21 20 20 21 21 21 22 22 22 22 22 22 22 22 22 22 22 22 22 22 22 22 22 22 22 22 22 22 22 22 22 22 22 22 22 22 22 22 22 22 22 22 22 22 22 22 22
19 19 19 19 18 18 19 19 19 19 19 19 19 19 19 19 20 20 20 20 20 21 22 22 22 22 22 22 22 22 22 22 22 22 22 22 22 22 22 22 22 22 22 22 22 22 22 22 22 22 22 22 22 22 22 22 22 22 22 22 22 21 21
18 18 18 18 18 18 18 18 18 19 19 18 18 18 19 19 19 20 20 20 20 21 21 21 21 22 22 22 22 22 22 22 22 22 22 23 23 23 23 23 23 23 23 23 22 22 22 23 23 22 22 22 22 22 22 22 22 22 22 22 22 21 21
17 18 18 18 18 18 18 18 18 18 18 18 18 19 19 19 19 20 20 20 20 21 21 21 21 21 22 22 22 22 22 22 23 22 22 23 23 23 23 23 23 23 23 23 23 22 22 22 22 22 22 22 22 22 22 22 22 22 21 21 21 21 21
17 18 18 18 18 18 18 18 18 18 18 18 19 19 20 20 20 20 20 20 20 20 21 21 21 22 22 22 22 22 22 22 22 22 22 22 22 23 23 23 23 23 22 22 22 22 21 21 21 21 22 22 22 22 22 22 21 21 21 21 21 21 21
16 17 17 18 18 18 18 18 18 18 18 18 18 19 19 19 20 20 20 20 20 20 20 21 21 21 21 21 21 21 21 21 21 21 21 21 21 21 21 22 22 21 21 21 22 23 22 22 22 21 21 21 21 21 21 21 21 21 21 21 21 21 21

ECMWFFLT1_850_temp_030.txt.gz
Temp
32 30 29 29 29 28 27 27 26 25 25 25 24 24 24 23 23 22 22 22 23 23 23 23 22 22 22 22 22 23 23 23 23 23 23 23 23 22 22 22 21 21 21 21 22 22 21 21 21 21 22 23 23 22 22 22 22 21 21 21 21 20 20
32 31 29 29 29 28 27 27 26 26 26 25 25 24 24 23 23 23 22 22 23 24 24 24 23 23 23 23 23 23 23 23 23 23 23 23 23 23 23 22 22 22 22 22 21 22 22 21 21 21 22 22 23 23 22 22 22 22 21 21 21 21 20
32 32 31 29 29 28 28 27 26 26 26 25 25 25 24 24 24 23 23 22 22 23 24 25 25 24 24 24 24 24 24 24 23 23 23 24 24 23 23 23 22 22 22 22 21 21 21 21 21 21 21 21 22 23 22 22 22 22 21 21 21 21 21
33 33 32 30 29 29 28 27 26 26 26 26 25 25 25 24 24 24 23 23 22 22 23 25 26 25 25 25 25 25 25 24 24 24 24 24 24 24 23 23 22 22 22 22 22 21 21 21 21 21 21 21 21 22 22 22 22 22 22 21 21 21 21
33 33 33 32 30 29 29 28 27 27 27 27 26 25 25 25 24 24 23 23 23 23 24 25 26 26 25 25 25 25 25 25 25 25 24 24 24 24 24 23 23 22 22 22 21 21 21 21 21 21 21 21 21 21 22 22 22 22 22 21 21 21 21
33 33 33 32 31 30 30 29 29 28 27 27 27 26 25 25 24 24 23 23 23 23 24 25 25 25 25 25 26 26 26 25 25 25 25 24 24 24 24 24 23 23 22 22 22 22 22 22 21 21 21 21 21 21 21 22 23 23 22 22 22 21 21
33 34 34 33 32 31 30 30 29 29 28 28 27 26 26 25 25 24 24 23 23 23 23 24 25 25 25 25 26 26 26 26 25 25 25 25 24 24 24 24 23 23 23 22 22 22 22 22 22 22 21 21 21 21 22 22 23 23 23 22 22 22 22
34 33 33 33 32 32 31 30 30 30 29 28 27 27 26 26 26 25 24 23 23 23 23 23 24 25 25 26 26 26 26 26 26 25 25 25 25 24 24 24 24 23 23 22 22 22 22 23 23 22 22 21 21 22 22 22 22 23 23 23 23 23 22
34 33 33 34 33 32 31 30 30 30 29 28 27 27 27 26 26 25 25 24 24 23 23 23 24 24 25 25 26 26 25 25 26 26 25 25 25 25 25 24 24 23 23 23 22 23 23 23 23 23 22 22 22 22 22 22 22 22 22 22 23 23 23
35 33 34 34 33 33 31 30 30 30 29 28 28 28 27 27 26 26 26 25 24 24 24 24 24 24 25 25 25 25 25 25 26 26 25 25 25 25 25 25 24 24 23 23 23 23 23 23 23 23 23 23 22 22 23 23 22 22 22 22 22 23 23
35 34 34 35 34 32 31 30 30 30 29 29 28 28 28 27 27 27 26 26 25 25 24 24 24 24 25 25 26 26 26 26 26 26 26 26 25 25 25 25 25 24 24 23 23 23 23 23 23 23 23 23 23 23 23 23 23 22 22 22 22 22 23
34 34 34 34 34 33 32 31 31 30 30 29 29 29 28 27 27 27 27 26 26 26 25 25 24 24 24 25 26 26 26 26 26 25 26 26 26 26 25 25 25 25 24 24 23 23 23 23 23 24 24 24 24 24 24 23 23 23 23 22 22 22 22
33 33 34 34 33 32 32 32 31 31 30 30 29 29 29 28 27 27 27 27 27 27 26 26 25 25 24 24 25 25 25 26 27 26 26 26 26 26 25 25 25 24 24 24 24 23 23 24 24 24 24 25 25 25 24 24 24 23 23 23 22 22 22
33 33 33 33 33 32 32 31 31 31 30 30 30 29 29 28 28 27 27 27 27 27 27 26 26 26 25 25 25 25 25 26 27 27 26 26 26 26 25 25 25 24 24 24 24 23 23 23 24 24 24 25 25 25 25 24 24 23 23 23 23 22 22
33 33 32 32 32 32 32 32 31 31 30 30 29 29 29 29 28 28 28 28 27 27 27 27 27 26 26 25 25 25 25 26 27 27 27 27 26 26 26 25 25 24 24 24 24 23 23 23 23 23 24 24 24 25 25 24 24 24 24 23 23 23 22
34 34 33 32 32 32 31 31 31 30 30 30 29 29 29 29 29 28 28 28 28 27 28 28 27 27 26 26 26 26 25 25 26 26 27 27 27 27 26 26 25 24 24 24 24 24 24 23 23 23 23 23 24 24 24 24 24 24 24 24 24 24 23
34 34 33 32 31 31 31 30 30 30 30 29 29 29 29 29 29 29 28 28 28 28 28 28 28 27 27 27 26 26 26 26 26 26 26 27 27 27 27 26 26 25 24 24 24 24 24 24 23 23 23 23 23 23 24 24 24 24 25 25 25 24 24
33 33 33 32 31 31 30 30 31 30 30 29 29 29 29 29 29 29 29 29 28 28 28 28 28 28 27 27 26 26 26 26 26 26 26 26 27 27 27 27 26 26 25 25 24 24 24 24 24 24 23 23 23 23 23 24 25 25 25 25 25 25 24
32 33 33 33 32 31 30 30 31 31 30 29 29 29 29 29 29 29 29 29 29 29 28 28 28 28 28 27 27 26 26 26 26 26 26 26 26 27 27 27 26 26 25 25 25 24 24 24 24 24 24 24 23 23 23 24 24 25 25 25 25 25 25
32 32 32 32 32 32 31 31 30 30 30 30 29 29 29 29 29 29 29 29 29 29 29 28 28 28 28 28 27 27 26 26 26 26 26 26 26 26 26 26 27 27 26 25 25 24 24 24 24 24 24 24 24 24 23 23 24 24 25 25 25 24 24
32 32 32 32 32 31 30 30 30 29 30 30 30 30 30 29 29 29 29 29 29 29 29 28 28 28 28 28 27 27 26 26 25 25 25 25 25 26 26 26 26 26 25 25 25 24 25 25 24 24 24 24 24 24 24 23 23 23 23 24 24 24 24
31 31 31 31 30 29 29 29 29 29 29 30 30 30 30 30 30 29 29 29 28 28 28 28 28 28 28 28 28 27 26 26 26 25 25 25 25 25 25 25 25 25 25 25 24 24 24 24 24 24 24 24 24 24 24 24 23 23 23 23 23 23 23
29 28 28 28 28 28 28 28 28 28 29 28 28 29 29 30 31 31 30 29 29 28 28 28 28 28 28 28 28 27 27 26 26 25 25 25 24 24 24 24 24 24 24 24 24 23 24 24 24 24 24 24 23 23 24 24 23 23 23 23 22 22 23
27 26 27 27 27 26 26 27 28 28 28 28 28 28 28 28 30 30 31 30 29 29 28 28 28 28 28 28 27 27 27 26 26 25 25 25 24 24 24 24 24 24 24 23 23 23 23 23 23 23 23 23 23 23 23 24 23 23 23 23 22 22 22
25 25 26 26 25 24 25 26 26 27 27 27 26 26 27 27 28 29 30 30 30 29 29 28 28 28 28 28 27 27 27 26 26 25 25 24 24 23 23 24 24 23 23 23 23 23 23 23 23 22 23 23 23 23 23 23 23 23 23 23 22 22 22
24 24 25 25 25 24 25 25 25 25 25 25 26 26 26 26 27 28 29 30 30 29 29 28 28 28 27 27 27 27 26 26 25 25 24 24 24 23 23 24 23 23 23 23 23 23 23 23 23 22 22 22 22 22 23 23 23 23 23 23 22 22 22
24 24 24 24 24 24 24 24 24 23 24 24 25 25 25 25 26 27 28 28 29 29 29 29 28 28 27 27 27 26 26 26 25 25 24 24 23 23 23 23 23 23 23 22 22 22 22 23 23 23 22 22 22 22 22 23 22 22 23 23 22 22 22
23 23 23 23 24 23 22 23 23 22 23 23 23 24 24 25 25 26 26 27 28 28 28 29 28 28 27 27 27 26 26 25 25 25 24 23 23 23 23 23 23 23 23 22 22 22 22 22 22 23 23 23 23 23 22 22 22 22 22 22 22 22 22
22 22 22 23 23 23 22 22 22 22 22 22 22 23 24 24 25 25 25 26 26 27 27 28 28 28 27 27 26 26 26 25 24 24 24 23 23 23 23 23 23 22 22 22 22 22 22 22 22 22 23 23 23 23 23 23 22 22 22 22 22 22 22
21 21 21 22 22 22 21 22 21 21 21 21 21 22 24 24 24 25 25 25 25 26 26 27 27 27 27 26 26 26 25 25 24 24 23 23 23 23 23 23 23 23 22 22 22 22 22 22 22 22 22 22 22 23 23 23 23 23 23 23 22 22 22
20 21 21 21 21 21 21 22 22 21 21 21 21 21 23 24 24 24 24 24 24 25 25 26 26 26 26 26 25 25 25 25 24 24 23 23 23 23 22 22 22 23 22 22 22 22 22 22 22 22 22 22 22 22 23 23 23 23 23 23 23 23 22
19 20 20 20 20 20 20 21 21 20 20 20 20 21 22 23 23 23 23 23 23 24 25 25 25 25 25 25 25 24 24 24 24 24 24 23 23 23 22 22 22 22 22 22 22 22 22 22 22 22 22 22 22 22 22 23 23 23 23 23 23 23 23
18 19 19 20 19 19 20 20 20 20 20 20 20 20 21 21 21 22 22 22 22 23 24 24 24 24 24 24 24 24 24 24 24 24 23 23 23 23 22 22 22 22 22 22 22 22 22 22 22 22 22 22 22 22 22 22 23 23 23 23 23 23 23
18 18 19 19 19 19 19 19 20 20 19 19 19 20 20 20 20 21 21 21 21 22 23 23 23 23 23 23 23 23 23 23 23 24 23 23 23 22 22 22 22 22 22 22 22 22 22 22 22 22 22 22 22 22 22 22 22 22 22 22 22 22 22
17 18 19 19 19 19 19 19 19 19 19 19 19 19 20 20 20 20 21 21 21 21 22 22 22 22 23 23 23 23 23 23 23 23 23 23 23 23 23 23 23 23 23 22 22 22 22 22 22 22 22 22 22 22 22 22 22 22 22 22 22 22 22
17 18 18 19 19 19 19 19 19 18 19 19 19 20 20 20 20 21 21 21 21 21 21 22 22 22 23 23 23 23 23 23 23 23 23 23 23 23 23 23 23 23 22 23 22 22 22 23 23 23 23 22 22 22 22 22 22 22 22 22 22 21 21
17 18 18 19 19 19 18 18 18 18 18 19 19 20 21 21 21 21 21 21 21 21 21 22 22 22 22 23 23 23 23 23 23 23 23 23 23 23 23 23 23 23 22 22 22 22 22 22 23 23 23 22 22 22 22 22 22 22 21 21 21 21 21
17 18 18 18 19 18 18 18 18 18 18 19 19 20 20 21 21 21 21 21 20 21 21 22 22 22 22 22 22 23 22 22 22 23 23 23 23 23 23 23 23 23 22 22 22 22 22 22 22 22 22 22 22 22 22 22 22 22 22 22 21 21 21

ECMWFFLT1_850_temp_033.txt.gz
Temp
28 28 27 26 26 26 26 26 25 25 25 24 24 24 23 23 23 22 22 21 21 21 21 21 21 21 21 22 22 22 23 23 23 23 23 23 23 23 23 23 23 22 21 21 21 22 22 22 22 22 22 22 22 22 22 22 21 21 21 21 20 20 20
28 28 27 27 27 26 26 26 25 25 25 24 24 24 23 23 23 22 22 21 21 21 21 21 21 21 22 23 23 23 23 23 23 23 23 23 23 23 23 23 23 22 22 22 21 21 22 22 22 22 22 22 22 22 22 22 22 21 21 21 21 21 21
29 28 28 27 27 27 26 26 26 25 25 25 24 24 24 23 23 23 22 22 21 21 21 21 21 21 22 23 23 23 23 23 23 23 23 23 23 23 23 23 23 23 22 22 21 21 21 21 22 22 22 22 22 22 22 22 22 22 22 21 21 21 21
29 29 28 28 28 27 27 26 26 26 25 25 25 24 24 24 23 23 22 22 22 21 21 21 21 21 21 22 23 24 24 23 24 24 24 24 24 23 23 23 23 23 22 22 22 22 21 21 21 22 22 22 22 22 22 22 22 22 22 22 21 21 21
29 29 28 28 28 27 27 27 26 26 26 25 25 25 24 24 23 23 23 22 22 22 22 21 21 21 21 21 22 23 24 24 24 24 24 24 24 23 23 23 23 23 23 23 22 22 22 22 22 22 22 22 22 22 22 22 22 22 22 22 22 22 21
29 29 28 28 28 28 27 27 26 26 26 25 25 25 24 24 24 23 23 23 22 22 22 21 21 21 21 21 21 22 24 24 24 24 24 24 24 24 24 23 23 23 23 23 23 23 22 22 22 22 22 22 22 22 22 22 22 22 22 22 22 22 22
30 29 29 29 28 28 28 28 27 27 26 26 25 25 25 24 24 24 23 23 23 22 22 21 21 21 21 21 21 22 23 23 24 24 24 24 24 24 24 24 24 24 24 23 23 23 22 22 22 22 22 22 22 22 22 22 22 22 22 22 22 22 22
30 30 29 29 29 29 29 28 27 27 26 26 25 25 25 24 24 24 24 23 23 23 22 22 22 21 21 21 21 22 23 23 24 24 24 24 24 24 24 24 24 24 24 24 23 23 23 23 22 22 21 21 22 22 22 22 22 22 22 22 22 22 22
31 30 30 30 29 29 29 28 28 27 27 27 26 25 25 24 24 24 24 24 23 23 23 22 22 22 22 21 21 22 22 22 23 23 23 23 23 24 24 24 24 24 24 24 24 24 23 23 22 22 22 21 21 22 22 22 22 22 23 23 23 23 23
31 30 30 30 30 29 29 28 27 27 27 27 26 26 25 25 25 24 24 24 24 23 23 22 22 22 22 22 22 22 22 22 23 23 23 23 23 24 24 24 25 24 24 24 24 24 23 23 22 22 22 22 22 22 22 22 23 23 23 23 23 23 23
31 31 31 30 30 29 29 28 27 27 28 27 27 26 26 25 25 25 24 24 24 23 23 23 22 22 22 22 23 23 22 22 23 23 23 23 24 24 24 24 24 24 24 24 24 24 23 23 23 22 22 22 22 22 22 23 23 23 23 23 23 23 23
32 31 30 30 30 29 29 29 28 29 29 28 27 27 26 26 25 25 25 25 24 23 23 23 22 22 22 22 22 23 23 23 23 23 23 24 24 24 24 24 24 25 25 24 24 24 24 23 23 23 22 23 23 23 23 23 23 23 24 24 24 24 23
31 31 30 30 30 30 29 29 29 29 29 28 27 27 26 26 26 25 25 25 25 24 23 23 22 22 22 22 22 22 23 23 24 24 24 25 24 24 24 24 24 24 25 25 25 24 24 24 23 23 23 23 24 24 24 24 24 24 24 24 24 24 24
31 31 30 31 30 30 30 29 29 29 29 28 28 27 27 27 26 26 26 25 25 25 24 23 23 22 22 22 22 22 23 24 25 25 25 25 25 25 25 25 24 24 24 25 25 24 24 24 24 24 24 24 24 24 24 24 24 24 24 24 24 24 24
31 31 30 31 31 30 30 30 29 29 29 28 28 28 28 27 27 26 26 26 26 25 25 24 24 23 23 22 22 22 23 24 25 25 25 25 25 25 25 25 25 25 24 24 24 24 24 24 24 24 24 24 24 24 24 24 24 24 24 24 24 24 24
31 30 30 30 31 31 31 30 30 30 29 29 29 28 28 27 27 27 26 26 26 26 25 25 24 24 23 23 23 23 23 24 24 25 25 25 25 25 25 25 25 25 24 24 24 24 24 24 24 23 24 23 23 23 23 23 24 24 24 24 25 24 24
31 30 30 30 30 30 30 30 30 30 30 29 29 29 28 27 27 27 27 27 26 26 26 26 25 25 24 24 24 23 23 23 24 24 25 25 26 26 26 26 25 25 25 24 24 24 24 24 23 23 24 24 24 24 24 24 24 24 24 24 24 24 24
31 30 30 30 30 30 30 30 30 30 30 30 30 29 28 28 28 27 27 27 27 27 26 26 26 26 25 25 24 24 24 24 24 24 24 25 26 26 26 26 25 25 25 24 24 25 25 24 24 24 24 24 24 24 24 24 24 24 24 24 24 24 24
31 31 31 30 30 30 30 30 30 30 30 30 30 29 28 28 28 28 28 28 27 27 27 27 26 26 26 26 25 25 25 25 24 24 24 25 25 26 26 26 25 25 25 25 25 25 25 25 25 25 24 24 24 24 25 25 25 25 24 24 24 24 24
31 31 31 30 30 30 30 30 30 30 30 30 29 29 29 29 29 29 28 28 28 27 27 27 27 27 27 26 26 26 25 25 25 25 25 25 25 25 25 25 25 25 25 25 25 24 25 25 26 25 25 25 25 25 25 25 25 25 25 24 24 24 24
29 29 28 29 29 29 29 29 29 29 29 29 29 29 29 29 29 29 29 28 28 28 28 27 27 27 27 27 27 26 26 26 26 26 26 25 25 25 25 24 25 25 25 25 25 25 25 25 26 26 26 26 25 25 25 25 25 25 25 24 24 24 23
26 26 26 27 28 28 29 29 29 29 29 28 29 29 29 29 29 29 29 29 28 28 28 28 28 27 27 27 27 27 26 26 26 26 26 26 26 25 25 25 25 25 24 24 24 25 25 25 25 25 26 26 25 25 25 25 25 24 24 24 23 23 23
25 25 26 26 26 27 28 29 29 29 29 29 29 29 29 29 29 29 29 29 29 29 28 28 28 28 28 28 27 27 27 27 26 26 26 26 26 26 26 25 25 25 24 24 24 24 24 24 24 25 25 25 25 25 25 25 24 24 23 23 23 22 22
25 25 25 25 26 26 27 27 28 28 29 30 30 30 30 29 29 28 28 29 29 29 29 29 28 28 28 28 28 28 27 27 27 26 26 26 26 26 26 26 25 25 25 24 24 24 24 24 24 24 24 24 24 24 24 24 24 23 23 23 22 22 22
24 24 24 25 25 25 26 26 26 26 27 28 28 29 29 29 29 28 28 28 28 28 29 29 29 29 28 28 28 28 28 27 27 27 26 26 26 26 26 26 25 25 25 24 24 24 24 24 23 23 24 24 24 24 24 24 23 23 23 23 22 22 22
23 24 24 24 24 24 25 25 25 26 26 26 26 26 27 28 29 28 28 28 28 28 28 29 29 29 29 28 28 28 28 28 27 27 27 26 26 26 26 26 25 25 25 24 24 24 24 24 24 23 23 23 23 23 23 23 23 23 23 23 22 22 22
22 23 24 23 23 23 24 24 24 25 25 25 26 26 26 27 28 28 28 28 28 28 28 28 28 29 29 29 28 28 28 28 27 27 27 26 26 26 25 25 25 25 24 24 24 24 23 23 23 23 23 23 23 23 23 23 23 23 23 23 22 22 22
21 22 23 23 22 22 23 23 23 24 24 25 26 26 25 25 26 27 28 28 28 28 28 28 28 28 29 29 28 28 28 28 27 27 27 26 26 26 25 25 25 25 24 24 24 23 23 23 23 23 23 23 23 23 23 23 23 23 22 22 22 22 22
20 21 21 22 21 21 22 22 22 22 22 23 24 24 25 24 25 25 26 27 28 28 28 28 28 28 28 28 28 28 28 27 27 27 26 26 26 25 25 25 24 24 24 24 23 23 23 23 23 23 23 23 23 22 22 22 22 22 22 22 22 22 22
19 19 20 20 20 21 21 21 21 21 21 21 22 23 23 23 23 24 24 25 26 27 27 28 28 28 28 28 28 28 28 27 27 26 26 26 25 25 25 25 24 24 24 23 23 22 22 22 22 22 22 22 22 22 22 22 22 22 22 22 22 22 22
18 19 19 19 19 20 21 21 20 20 21 20 21 22 21 21 22 23 24 24 25 25 26 27 27 27 27 27 27 27 27 27 26 26 26 25 25 25 24 24 24 23 23 23 22 22 22 22 22 22 22 22 22 22 22 22 22 22 22 22 22 22 22
18 18 19 19 19 19 20 20 20 20 20 20 20 21 21 21 21 22 22 23 23 24 25 26 26 27 26 26 27 27 27 26 26 25 25 25 25 24 24 24 23 23 23 22 22 22 22 22 22 22 22 22 22 22 22 22 22 22 22 22 22 22 22
18 18 18 18 18 19 19 20 19 19 19 20 20 20 20 20 21 21 22 22 23 23 24 25 25 26 26 26 26 26 26 26 25 25 24 24 24 24 24 23 23 23 22 22 22 22 22 22 22 22 22 22 22 22 22 22 22 22 22 22 22 22 22
18 18 18 18 18 19 19 19 19 19 19 19 20 20 20 20 21 21 21 22 22 23 23 24 24 25 25 25 25 25 25 25 25 24 24 24 24 23 23 23 23 22 22 22 22 22 22 22 22 22 22 22 22 22 22 22 22 22 22 22 22 22 22
18 18 18 18 18 18 19 19 19 19 19 19 19 19 20 20 20 21 21 21 22 22 23 23 23 24 24 24 24 24 24 24 24 24 24 23 23 23 23 23 22 22 22 22 22 22 22 22 22 22 22 22 22 22 22 22 22 22 22 22 22 22 22
17 18 18 18 18 19 19 19 19 19 19 19 19 19 20 20 20 20 21 21 21 21 22 22 23 23 23 23 23 23 24 24 24 23 23 23 23 23 23 22 22 22 22 22 22 22 22 22 21 21 22 22 22 22 22 22 22 21 21 21 21 21 21
17 18 18 18 18 18 19 19 19 19 19 19 19 19 20 20 20 20 20 20 21 21 21 22 22 22 23 23 23 23 23 23 23 23 23 23 23 23 22 22 22 21 21 21 21 21 21 21 21 21 21 21 21 21 21 21 21 21 21 21 21 21 21
16 17 17 17 17 18 18 18 18 18 18 18 19 19 20 20 20 20 20 20 21 21 21 21 21 21 22 22 22 23 23 23 23 23 23 23 23 22 22 22 22 21 21 21 21 21 21 21 21 21 21 21 21 21 21 21 21 21 21 21 21 21 21

ECMWFFLT1_850_temp_036.txt.gz
Temp
26 26 26 25 25 25 25 25 24 24 24 24 24 23 23 23 22 22 22 22 21 21 21 21 21 20 20 20 20 20 21 21 21 21 21 21 22 22 22 23 23 23 23 23 23 23 23 22 21 21 21 21 22 22 22 21 21 21 21 20 20 20 20
27 26 26 25 25 25 25 25 25 24 24 24 24 23 23 23 23 22 22 22 22 22 21 21 21 21 21 20 20 20 21 21 21 21 21 21 21 21 22 22 23 23 23 23 23 23 23 22 22 21 21 21 22 22 22 22 21 21 21 21 20 20 21
27 26 26 26 25 25 25 25 25 24 24 24 24 24 23 23 23 23 22 22 22 22 21 21 21 21 21 20 20 20 20 21 21 21 21 21 21 21 22 22 22 23 23 23 23 23 23 23 22 22 22 22 22 22 22 22 22 21 21 21 21 21 21
27 26 26 26 26 25 25 25 25 25 24 24 24 24 24 23 23 23 23 22 22 22 21 21 21 21 21 20 20 20 20 20 21 21 22 22 22 22 22 22 22 22 23 23 23 23 23 23 23 22 22 22 22 22 22 22 22 22 21 21 21 21 21
27 27 26 26 25 25 25 25 25 25 24 24 24 24 24 24 23 23 22 22 22 22 22 22 21 21 21 20 20 20 20 20 21 21 22 22 22 22 22 22 22 23 23 23 23 23 23 23 23 23 22 22 22 22 22 22 22 22 22 21 21 21 21
27 27 26 26 25 25 25 25 25 25 25 25 25 24 24 23 23 23 22 22 22 22 22 22 21 21 21 21 21 20 20 20 21 21 21 22 22 22 22 23 23 23 23 23 23 23 23 23 23 23 23 22 23 22 22 22 22 22 22 22 21 21 21
27 27 26 26 26 25 25 25 25 25 25 25 25 24 24 23 23 23 23 22 22 22 22 22 22 21 21 21 21 20 21 21 21 21 21 21 21 22 23 23 23 23 23 23 23 23 23 23 23 23 23 23 23 23 23 23 22 22 22 22 22 22 22
27 27 27 26 26 26 25 25 25 25 25 25 24 24 24 24 23 23 23 23 22 22 22 22 22 22 21 21 21 21 21 21 21 22 22 21 21 21 22 23 23 23 23 23 23 23 23 23 23 23 23 23 23 23 23 23 23 23 23 22 22 22 22
28 27 27 27 26 26 26 25 25 25 25 24 24 24 24 24 23 23 23 23 22 22 22 22 22 22 22 21 21 21 21 22 22 22 22 21 21 21 21 22 23 23 23 23 23 24 23 23 23 23 23 23 23 23 23 23 23 23 23 23 23 23 22
28 27 27 27 26 26 26 25 25 25 25 25 24 24 24 24 24 23 23 23 22 22 22 22 22 22 22 22 21 21 21 22 22 22 22 21 21 21 21 22 22 22 23 23 23 23 24 24 23 23 23 23 23 23 23 23 23 23 23 23 23 23 23
28 28 27 27 26 26 26 25 25 25 25 25 25 24 24 24 24 23 23 23 23 22 22 22 22 22 22 22 21 21 21 22 22 22 22 22 22 22 22 22 22 22 22 23 23 23 23 23 23 23 23 23 23 23 24 24 24 23 23 23 23 23 23
28 28 27 27 27 27 26 26 25 25 25 25 25 25 25 24 24 24 23 23 23 23 22 22 22 22 22 22 21 21 21 22 23 23 23 23 22 22 22 22 22 22 22 23 23 23 23 23 23 24 24 24 24 24 24 24 23 23 23 23 23 23 23
28 28 27 27 27 27 27 26 26 26 26 26 25 25 25 25 24 24 23 23 23 23 23 22 22 22 22 22 21 21 21 22 23 23 23 23 23 23 23 23 23 23 23 23 23 23 23 23 24 24 24 24 24 24 24 24 24 23 23 23 23 23 23
28 28 28 28 27 27 27 26 26 26 26 26 26 25 25 25 24 24 24 24 23 23 23 23 23 23 23 22 22 21 21 22 23 23 23 23 23 23 23 23 23 23 23 23 23 23 24 24 24 24 24 24 24 24 24 24 24 23 23 23 23 23 23
28 28 28 28 28 28 28 27 27 26 26 26 26 25 25 25 25 24 24 24 24 23 23 23 23 23 23 22 22 22 22 22 23 23 23 23 23 23 23 23 23 23 23 23 23 24 24 24 24 24 25 25 25 25 24 24 24 24 24 24 23 23 23
28 28 28 28 28 28 28 28 27 27 27 27 26 26 26 25 25 25 24 24 24 24 24 23 23 23 23 23 23 23 23 23 23 23 23 23 23 23 23 23 22 22 23 23 23 24 24 24 24 24 25 25 25 25 24 24 24 24 24 24 24 24 24
29 29 28 28 28 28 28 28 27 27 27 27 27 27 27 26 26 25 25 24 24 24 24 24 23 23 23 23 23 24 23 23 23 23 23 23 23 22 22 22 22 22 22 23 23 23 24 24 24 24 25 25 25 25 24 24 25 25 25 24 24 24 24
29 29 29 29 28 28 28 28 27 27 27 28 28 28 27 27 26 26 25 25 25 24 24 24 24 23 23 24 24 24 23 23 23 23 23 22 22 22 22 22 22 22 22 22 23 23 23 24 24 25 25 25 25 25 25 25 25 25 25 25 24 24 24
29 29 29 29 28 29 29 28 28 28 28 29 29 29 28 28 27 27 26 26 26 25 25 24 24 24 24 24 24 24 24 24 23 23 23 23 23 22 22 22 22 22 22 22 23 23 23 23 24 25 25 25 25 25 25 25 26 26 25 25 25 24 23
27 28 28 28 28 28 28 28 28 28 28 28 28 28 28 28 27 27 27 27 26 26 25 25 25 24 24 24 24 24 24 24 24 23 23 23 23 23 22 22 22 22 22 22 22 22 23 23 24 24 25 25 25 25 26 26 26 26 26 25 25 24 23
26 27 27 27 27 27 27 27 27 27 27 27 27 27 27 27 27 27 27 27 27 26 26 25 25 25 25 25 25 25 24 24 24 24 24 24 23 23 23 23 23 23 23 22 22 22 23 23 24 24 24 25 25 25 25 26 26 26 25 25 25 24 23
25 26 26 26 27 27 27 27 27 27 27 27 27 27 27 27 27 27 27 27 27 27 26 26 26 25 25 25 25 25 25 25 24 24 24 24 24 24 24 24 24 24 24 23 23 23 23 23 23 24 24 24 24 24 25 25 25 24 24 24 24 23 23
24 24 25 25 26 26 26 27 27 27 27 27 27 27 27 27 27 27 28 28 27 27 27 26 26 26 26 26 26 25 25 25 25 25 25 25 24 24 24 24 24 24 24 24 23 23 23 23 23 24 24 24 23 24 24 24 24 23 23 23 23 23 22
23 24 24 24 25 25 26 26 27 27 27 27 27 27 27 27 27 27 27 27 27 27 27 27 27 26 26 26 26 26 26 26 26 26 25 25 25 25 25 25 25 25 24 24 24 24 24 24 24 24 24 24 24 24 24 23 23 23 23 23 23 22 22
23 23 23 24 24 24 25 26 26 26 27 27 27 27 27 27 27 27 27 27 27 27 27 27 27 27 27 27 27 27 27 26 26 26 26 26 26 26 26 26 26 25 25 25 25 25 24 24 24 24 24 24 24 24 24 24 23 23 23 22 22 22 22
21 22 22 23 24 24 25 26 27 27 27 27 27 27 27 27 28 27 27 27 27 27 27 27 27 27 27 27 27 27 27 27 27 27 27 26 26 26 26 26 26 26 25 25 25 25 24 24 24 24 24 24 24 24 24 24 23 23 23 22 22 22 22
20 21 21 22 23 24 25 26 26 27 27 27 27 27 27 27 27 27 27 27 27 27 27 27 27 27 27 27 27 27 27 27 27 27 27 27 27 27 26 26 26 26 26 25 25 25 24 24 24 24 24 24 24 24 23 23 23 23 23 23 22 22 22
20 21 21 21 22 23 24 25 26 26 26 26 27 27 28 28 28 27 27 27 27 27 27 27 27 27 27 28 28 28 28 28 27 27 27 27 27 27 26 26 26 26 26 26 25 25 25 25 24 24 24 24 24 23 23 23 23 23 23 22 22 22 22
19 20 20 20 21 21 22 24 25 25 24 25 25 26 27 27 28 27 26 26 26 26 27 27 27 27 27 27 28 28 28 28 28 28 27 27 27 27 26 26 26 26 26 25 25 25 25 25 24 24 24 23 23 23 23 23 22 22 22 22 22 22 22
19 19 19 20 20 20 20 21 22 22 23 23 23 24 25 25 26 25 25 25 25 25 26 27 27 27 27 27 28 28 28 28 28 28 28 27 27 26 26 26 26 25 25 25 25 25 25 24 24 24 23 23 23 23 22 22 22 22 22 22 22 22 22
18 19 19 20 20 20 20 20 20 20 21 21 22 22 22 22 22 23 23 23 23 24 24 25 26 27 27 27 28 28 28 28 28 28 28 27 27 26 26 26 25 25 25 25 25 24 24 24 24 23 23 23 23 22 22 22 22 22 22 22 22 22 22
18 18 19 20 20 20 20 20 20 20 20 20 21 21 21 21 21 21 21 22 22 23 23 24 25 25 26 27 27 28 28 27 27 27 27 27 26 26 26 25 25 25 24 24 24 24 24 23 23 23 23 23 22 22 22 22 22 21 21 21 21 21 21
18 18 18 19 19 19 19 20 20 20 20 20 20 20 20 20 20 20 21 21 21 22 23 23 24 24 25 26 27 27 27 27 27 27 27 26 26 25 25 25 25 25 24 24 24 23 23 23 23 23 22 22 22 22 22 22 21 21 21 21 21 21 21
17 18 18 18 19 19 19 19 19 19 19 19 19 19 19 20 20 20 20 21 21 22 22 23 23 23 24 25 26 26 27 26 27 27 26 26 25 25 24 24 24 24 24 24 23 23 23 22 22 22 22 22 22 21 21 21 21 21 21 21 21 21 21
17 17 18 18 18 19 18 19 19 19 19 19 19 19 19 20 20 20 20 20 21 21 22 23 23 23 23 24 25 26 26 26 26 26 25 25 24 24 24 24 23 23 23 23 23 22 22 22 22 22 22 22 21 21 21 21 21 21 21 21 21 21 21
17 17 17 18 18 18 18 18 19 19 19 19 19 19 20 20 20 20 20 20 20 21 21 22 22 22 23 23 24 24 25 25 25 25 25 24 24 24 24 23 23 23 23 23 22 22 22 22 21 21 21 21 21 21 21 21 21 21 21 21 21 21 21
17 17 17 17 17 17 18 18 19 19 19 19 19 19 19 20 20 20 20 20 20 20 20 21 22 22 22 23 23 23 24 24 24 24 24 24 23 23 23 23 23 22 22 22 22 22 21 21 21 21 21 21 21 21 21 21 21 21 21 21 21 21 21
17 17 17 17 17 17 17 18 18 19 19 18 18 19 19 19 20 20 20 20 20 20 20 21 21 21 22 22 23 23 23 23 24 24 23 23 23 23 23 23 22 22 21 21 21 21 21 21 21 21 21 21 21 21 21 21 21 21 21 21 21 21 21

ECMWFFLT1_850_temp_042.txt.gz
Temp
24 24 24 23 23 23 23 23 23 22 22 22 21 21 21 21 21 21 21 21 21 21 21 21 21 21 21 21 21 21 21 20 20 20 20 20 20 21 21 21 21 21 21 21 22 22 22 22 21 21 21 21 21 21 21 21 21 21 21 21 20 20 20
24 24 24 24 23 23 23 23 23 22 22 22 21 21 21 21 21 21 21 21 21 21 21 21 21 21 21 21 21 21 21 21 20 20 20 20 21 21 21 21 21 21 21 21 21 22 22 22 22 21 21 21 21 21 21 21 21 21 21 21 21 21 20
25 25 25 24 24 24 23 23 23 23 23 22 22 21 21 21 21 21 21 21 21 21 21 21 21 21 21 21 21 21 21 21 21 20 20 21 21 21 21 21 21 21 21 21 21 21 22 22 22 21 21 21 21 21 21 21 21 21 21 21 21 21 21
25 25 25 25 25 24 24 24 23 23 23 23 23 22 22 21 21 21 21 22 22 21 21 21 21 21 21 21 21 21 21 21 21 21 21 21 21 21 21 21 21 21 21 21 21 21 21 21 22 22 21 21 21 21 21 21 21 21 21 21 21 21 21
25 25 25 25 25 24 24 24 23 23 23 23 23 22 22 22 21 21 21 21 22 22 22 22 22 21 21 21 21 21 21 21 21 21 21 21 21 21 21 21 21 21 21 22 21 21 21 21 22 22 22 22 21 21 21 21 21 21 21 21 21 21 21
25 25 25 25 25 25 24 24 24 24 23 23 23 22 22 22 21 21 21 21 22 22 22 22 22 22 21 21 21 21 21 21 21 21 21 21 21 21 21 21 21 21 21 21 21 21 21 21 21 22 22 22 22 22 21 22 22 22 22 22 21 21 21
26 25 25 25 25 25 25 25 24 24 24 23 23 22 22 22 22 22 21 21 21 22 22 22 22 21 21 21 21 21 21 21 21 21 21 21 21 21 21 21 21 21 21 21 21 21 21 21 21 22 22 22 22 22 22 22 22 22 22 22 22 22 21
26 26 26 26 26 26 25 25 25 24 24 23 23 22 22 22 22 22 22 21 21 21 22 22 22 22 21 21 21 21 21 21 21 21 21 21 21 21 21 21 21 21 21 21 21 22 22 22 22 22 22 22 22 22 22 22 22 22 22 22 22 22 22
27 26 27 26 26 26 26 26 25 24 24 23 23 23 22 22 22 22 22 22 21 21 22 22 22 22 22 22 22 22 22 21 21 21 21 21 21 21 21 21 21 21 21 21 21 22 22 22 22 22 22 22 22 22 22 22 22 22 22 22 22 22 22
28 27 27 27 26 26 26 25 25 24 23 23 23 23 23 22 22 22 22 22 22 22 22 22 22 22 22 22 22 22 22 21 21 21 21 21 21 21 21 21 21 21 21 21 21 22 22 22 22 22 22 22 22 22 22 22 22 22 22 22 22 22 22
28 27 27 27 26 26 26 25 25 24 24 23 23 23 23 22 22 22 22 22 22 22 22 22 22 22 22 22 22 22 22 21 21 21 22 22 22 22 22 22 21 21 21 21 21 22 22 22 22 22 22 22 22 23 23 23 23 22 22 22 22 22 22
28 27 27 27 26 26 25 25 25 24 24 24 24 24 23 23 22 22 22 23 23 23 22 22 22 22 22 22 22 22 22 22 22 22 22 22 22 22 22 22 22 22 22 22 22 22 22 22 22 22 22 23 23 23 23 23 23 23 23 23 23 23 22
28 28 28 27 27 26 26 25 25 25 24 24 24 24 23 23 23 23 23 23 23 23 22 22 22 22 22 22 22 22 22 22 22 22 22 22 22 22 22 22 22 22 22 22 22 22 22 22 22 22 23 23 23 23 23 23 23 23 23 23 23 23 23
28 27 27 27 26 26 26 25 25 25 24 24 24 24 23 23 23 23 23 23 23 22 22 22 22 22 22 22 22 22 22 22 22 22 22 22 22 22 22 22 22 22 22 22 22 22 22 22 22 22 23 23 23 23 23 23 23 23 23 23 23 23 23
27 27 27 26 26 26 26 26 25 25 24 24 24 24 23 23 23 23 23 23 23 22 22 22 22 22 22 22 22 22 23 23 22 22 22 22 22 22 22 22 22 22 22 22 22 23 23 22 22 22 22 23 23 23 23 23 23 23 24 24 23 23 23
26 26 26 26 26 26 26 26 26 25 24 24 24 24 23 23 23 23 23 23 23 23 23 22 22 22 22 22 22 23 23 22 22 22 22 22 22 22 22 22 22 22 22 22 22 23 23 23 23 23 23 23 23 23 23 23 23 24 24 24 24 24 24
25 26 26 26 26 27 27 26 25 25 24 24 24 24 24 24 23 23 23 23 23 23 23 22 22 22 22 22 23 23 23 22 22 22 22 22 22 22 22 22 22 22 22 22 22 22 22 22 23 23 23 23 23 23 23 23 24 24 24 24 24 24 24
25 26 26 26 26 27 26 25 25 25 24 24 25 24 24 24 23 23 23 23 23 23 23 22 22 22 22 23 23 23 22 22 22 22 22 22 22 22 22 22 22 22 22 22 23 23 22 23 23 23 23 23 23 23 23 23 24 24 24 24 24 24 24
25 26 26 26 26 27 26 25 25 25 25 25 25 25 25 24 24 24 24 23 23 23 23 22 22 22 22 22 22 22 22 22 22 22 22 23 23 23 22 22 22 22 22 22 23 23 23 23 23 24 24 23 23 23 23 24 24 24 24 24 24 24 24
25 25 26 26 26 26 26 25 26 25 25 25 26 26 25 24 24 24 23 23 23 23 23 22 22 22 22 22 22 22 22 22 22 22 23 23 23 23 23 22 22 22 22 22 22 22 23 23 23 24 24 24 24 24 24 24 24 24 24 24 24 24 24
26 25 25 25 25 26 26 26 25 25 25 25 25 25 24 24 24 23 23 23 23 23 23 22 22 22 22 23 22 22 22 22 22 23 23 23 23 23 23 23 22 22 22 22 22 22 23 23 23 24 24 24 24 24 24 24 24 24 24 24 24 24 24
25 26 26 25 25 25 26 26 25 25 25 25 25 25 24 24 24 23 23 23 23 23 23 23 23 23 23 23 23 23 23 23 23 23 23 23 23 23 23 23 23 23 22 22 22 22 22 22 23 23 24 24 24 24 24 25 25 24 24 24 24 24 23
24 26 26 26 26 25 25 25 25 25 25 25 25 25 24 24 24 24 23 23 23 23 23 23 23 23 23 23 23 23 23 23 23 23 23 23 23 23 23 23 23 23 23 22 22 22 22 22 22 23 23 23 24 24 25 25 25 25 25 24 24 24 23
21 24 26 26 26 25 25 25 25 25 25 25 25 25 25 24 24 24 23 23 23 23 23 23 24 24 24 24 24 24 24 24 24 24 24 23 23 23 23 23 23 23 23 23 23 23 23 22 22 23 23 23 23 24 24 25 25 25 25 24 24 23 23
19 21 24 25 25 25 25 25 25 25 25 25 25 25 25 25 24 24 24 23 24 23 23 24 24 24 25 25 25 25 24 24 24 24 24 24 24 24 24 24 24 24 23 23 23 23 23 23 23 23 23 23 23 23 23 23 24 24 24 24 23 23 23
18 19 21 23 24 25 25 25 25 25 25 25 25 25 25 25 25 25 24 24 24 23 24 24 25 25 25 25 25 25 24 24 24 24 24 24 24 24 24 24 24 24 23 23 23 23 23 23 23 23 23 23 23 23 23 23 23 24 24 23 23 23 23
18 18 19 21 22 23 24 25 25 25 25 25 26 26 26 25 25 25 24 24 24 24 24 25 25 25 25 25 25 24 24 24 24 24 24 24 25 24 24 24 24 24 24 24 23 23 23 23 23 23 23 23 23 23 23 23 23 24 23 23 23 23 23
18 18 18 19 20 22 23 23 24 25 25 25 25 26 26 26 25 25 24 24 24 24 24 24 25 25 25 25 25 24 24 24 24 24 24 24 24 24 24 24 24 24 24 23 23 23 23 23 23 23 23 23 23 23 23 23 23 24 23 23 23 23 23
17 18 18 19 20 20 21 22 23 23 24 24 25 25 25 25 25 25 24 24 24 24 24 24 24 24 24 24 24 24 24 24 24 24 24 24 24 24 24 24 24 24 24 23 23 23 23 23 23 23 23 23 23 24 24 24 24 24 24 23 23 23 23
17 17 18 19 19 20 21 21 22 22 23 23 24 24 24 25 25 24 24 24 24 23 24 24 24 24 24 24 24 24 24 24 24 24 25 25 24 24 24 24 24 24 24 24 23 23 23 23 23 23 23 23 24 24 24 24 24 24 23 23 23 23 23
17 17 17 18 19 19 20 20 21 21 22 22 22 23 23 24 24 24 23 23 23 23 23 23 24 24 24 24 24 24 24 25 25 25 25 25 25 24 24 24 24 24 24 24 24 23 23 23 23 23 23 23 24 24 24 24 24 23 23 23 23 22 22
16 17 17 18 18 19 19 20 20 21 21 21 21 22 22 23 23 23 23 23 23 23 24 24 24 24 24 24 24 24 25 25 25 26 25 25 25 25 25 25 25 25 24 24 24 24 24 23 23 23 23 23 23 24 24 24 24 23 23 22 22 22 22
16 16 17 17 18 18 19 19 19 20 20 20 20 21 21 22 23 23 23 23 23 24 24 24 24 24 25 25 25 25 25 25 26 26 26 26 25 25 25 25 24 24 24 24 24 24 24 24 23 23 23 23 23 23 23 23 23 23 22 22 22 22 21
15 16 16 17 17 18 18 18 18 19 19 19 19 20 20 21 22 22 23 23 24 24 24 24 24 24 24 25 25 25 25 25 25 26 26 26 26 25 24 24 24 24 24 24 24 24 24 24 24 23 23 23 23 23 23 22 22 22 22 22 22 21 21
15 16 16 16 17 17 17 18 18 18 18 19 19 19 20 20 20 21 22 23 23 24 24 24 24 24 24 24 24 25 25 25 25 25 26 26 26 25 25 24 24 24 24 24 24 24 23 23 23 23 23 22 22 22 22 22 22 22 21 21 21 21 21
15 16 16 16 16 16 17 17 17 18 18 18 19 19 19 19 20 20 20 21 21 22 23 23 24 23 23 23 24 24 24 25 25 25 25 26 26 25 25 24 24 24 23 24 23 23 23 23 22 22 22 22 21 21 21 21 21 21 21 21 21 21 20
15 15 16 16 16 16 16 16 17 17 17 18 18 19 19 19 19 19 20 20 20 21 21 22 22 22 22 22 23 23 23 24 24 25 25 25 25 25 24 24 24 24 23 23 23 23 22 22 22 22 21 21 21 21 21 21 21 21 21 21 20 20 20
15 15 15 16 16 16 16 16 16 16 17 17 18 18 19 19 19 19 20 20 20 20 21 21 21 21 21 21 22 22 23 23 24 24 24 24 24 24 24 23 24 24 23 23 23 23 22 22 22 22 21 21 21 21 21 21 21 21 21 21 21 20 20

ECMWFFLT1_850_temp_045.txt.gz
Temp
25 24 24 23 23 22 22 22 22 22 21 21 21 21 21 21 22 22 22 22 22 21 21 21 21 21 21 21 21 21 21 21 21 21 21 21 21 21 22 22 22 22 21 21 21 21 21 21 21 21 21 21 20 20 20 20 20 20 20 20 20 20 20
25 25 25 24 23 23 22 22 22 22 21 21 22 21 21 22 22 23 22 22 22 22 21 21 21 21 21 21 21 21 21 21 21 21 21 21 21 21 22 22 22 22 22 21 21 21 21 21 21 21 21 21 21 21 21 20 20 20 20 20 20 20 20
26 25 25 24 24 23 23 23 22 22 22 21 22 22 22 22 23 23 23 22 22 21 21 21 21 21 21 21 21 21 21 21 21 21 21 21 21 21 21 22 22 22 21 21 21 21 21 21 21 21 21 21 21 21 21 21 20 20 20 20 20 20 20
26 26 26 25 24 24 23 23 23 23 22 22 22 22 22 22 23 23 23 23 22 22 22 22 21 22 22 22 21 21 21 21 21 21 21 21 21 21 21 22 22 21 21 21 21 21 21 21 21 21 21 21 21 21 21 21 21 20 20 20 20 20 20
27 26 26 25 24 24 24 23 23 23 22 22 22 22 22 22 22 22 23 23 22 22 22 22 22 22 21 22 22 21 21 21 21 21 21 21 21 21 21 22 22 22 22 22 21 21 21 21 21 21 21 21 21 21 21 21 21 20 20 20 20 20 20
27 26 26 25 25 24 24 24 24 23 23 23 22 22 22 22 22 22 22 22 22 22 22 22 22 22 22 22 22 22 22 21 21 21 21 21 21 21 21 22 22 22 22 22 22 21 21 21 21 21 21 21 21 21 21 21 21 20 20 20 20 20 20
27 26 26 26 25 25 24 24 24 24 24 23 22 22 22 22 22 22 21 22 22 22 22 22 21 22 22 22 22 22 22 22 22 21 21 21 21 21 21 21 22 22 22 22 22 22 21 21 21 21 21 21 22 22 22 21 21 21 20 20 20 20 20
27 27 27 26 26 25 25 25 24 24 23 23 22 22 22 22 22 22 22 22 22 22 22 22 22 22 22 22 22 22 22 22 22 22 21 21 21 21 21 21 22 22 22 22 22 22 22 22 22 22 22 22 22 22 22 22 22 21 21 21 21 21 21
27 27 27 27 26 26 25 25 25 24 23 23 23 23 23 22 22 22 22 22 22 22 22 22 22 22 22 22 22 23 23 22 22 22 22 21 21 21 21 21 21 21 22 22 22 22 22 22 22 22 22 22 22 22 22 22 22 21 21 21 21 21 21
27 27 27 27 26 26 26 25 25 24 23 23 23 23 23 23 22 22 22 22 22 22 22 22 22 22 22 22 22 22 22 22 22 22 22 22 21 21 21 21 21 21 22 22 22 22 22 22 22 22 22 22 22 22 22 22 22 22 22 22 21 21 21
27 27 27 27 26 26 25 25 25 24 24 23 23 23 23 23 23 22 22 23 23 22 22 22 22 22 23 23 22 22 22 22 22 22 22 22 22 22 22 21 21 21 22 22 22 22 22 22 22 22 22 22 22 22 22 22 22 22 22 22 22 22 22
26 26 26 26 26 26 25 25 25 25 24 24 24 23 23 23 23 23 23 23 23 23 23 22 22 23 23 23 22 22 22 22 22 22 22 22 22 22 22 21 21 22 22 22 22 22 23 23 23 22 22 22 22 23 23 22 22 22 22 22 22 22 22
27 27 26 26 26 26 25 25 25 25 25 24 24 24 24 24 23 23 23 23 23 23 23 23 23 23 23 23 22 22 22 22 23 23 23 22 22 22 22 22 22 22 22 22 22 22 23 23 23 23 23 23 23 23 23 23 22 22 22 22 22 22 22
25 26 26 26 26 25 25 25 25 25 25 24 24 24 24 24 24 23 23 23 23 23 23 23 23 23 23 23 22 22 23 23 23 23 23 23 22 22 22 22 22 22 22 22 22 22 22 23 23 23 23 23 23 23 23 23 23 23 23 23 22 22 23
25 25 26 26 26 26 26 26 25 25 25 25 24 24 24 24 24 23 23 23 23 23 23 23 23 23 23 23 23 23 23 23 23 23 23 23 23 23 22 22 22 22 22 22 22 22 22 23 23 23 23 23 23 23 23 23 23 23 23 23 23 23 23
24 26 26 26 26 27 27 26 26 25 25 25 24 24 24 24 24 24 23 23 23 23 23 23 24 24 23 23 23 24 24 23 23 24 24 23 23 23 23 22 22 22 22 22 22 22 22 23 23 23 23 23 23 23 23 23 23 24 24 23 23 23 23
22 24 26 26 26 27 27 27 26 26 25 25 25 24 24 24 24 24 24 23 23 23 23 24 24 24 23 23 24 24 24 24 24 24 24 23 23 23 23 23 22 22 22 22 22 22 22 22 23 23 23 23 23 23 23 24 24 24 24 24 24 23 23
21 22 24 25 26 26 27 27 26 26 25 25 25 24 24 24 24 24 24 23 23 23 23 24 24 24 23 23 24 24 24 24 24 23 24 23 23 23 23 23 23 22 22 22 22 22 22 22 22 23 23 23 23 23 23 24 24 24 24 24 24 24 24
20 20 22 24 25 25 26 26 26 26 26 26 25 25 25 25 25 24 24 24 23 23 23 24 24 24 23 23 23 24 24 23 23 23 23 24 24 23 23 23 23 22 22 22 22 21 21 21 22 22 23 23 23 23 23 24 24 24 24 24 24 24 24
19 20 21 23 25 25 25 26 26 26 26 26 26 25 25 25 24 24 24 23 23 23 23 23 23 23 23 23 23 24 23 23 23 23 23 24 24 23 23 23 23 23 22 22 22 22 21 21 21 22 22 23 23 23 23 24 24 24 24 24 24 24 24
19 19 20 23 24 25 25 26 26 26 26 26 25 24 24 24 24 24 23 23 23 23 23 23 23 23 23 23 23 23 23 23 23 23 23 24 23 23 23 23 23 23 22 22 22 22 22 22 21 21 22 22 23 23 23 24 24 25 24 24 24 24 24
18 19 20 22 24 24 25 26 26 26 26 25 24 24 24 24 24 23 23 23 23 23 23 23 23 23 23 23 23 23 23 23 23 23 23 23 23 23 23 23 23 23 23 22 22 22 22 22 22 21 22 22 22 22 23 24 24 25 25 25 24 24 24
18 18 20 22 23 24 25 25 25 25 24 24 24 24 24 24 24 23 23 23 23 23 23 23 23 24 24 24 24 24 23 23 23 23 23 23 23 23 23 23 23 23 23 23 22 22 22 22 22 22 22 22 22 22 23 24 24 25 25 24 24 24 24
18 18 20 22 23 24 25 25 25 24 24 24 24 24 24 24 23 23 23 23 23 23 23 23 24 24 24 24 24 24 24 24 24 24 24 24 24 24 23 23 23 23 23 23 22 22 22 22 22 22 22 22 22 22 23 23 24 24 24 24 24 24 24
17 17 19 21 22 24 25 25 25 24 24 24 24 24 24 24 23 23 23 23 24 23 23 24 24 24 24 24 24 24 24 24 24 24 24 24 24 24 24 24 23 23 23 23 23 23 22 22 22 22 22 22 22 22 23 23 23 24 24 24 23 23 23
17 17 18 20 21 23 24 25 25 25 24 25 25 25 24 24 24 24 24 24 24 24 24 25 25 25 25 25 24 24 24 24 24 24 24 24 24 24 24 24 23 23 23 23 23 23 23 22 22 22 22 22 22 22 22 22 22 23 23 23 23 23 22
17 17 18 19 20 22 23 24 25 25 25 25 25 25 24 24 24 24 24 24 24 24 25 26 26 26 25 25 24 24 24 24 24 24 24 24 24 24 24 24 23 23 23 23 23 23 23 23 22 23 23 23 23 23 23 23 23 23 23 23 22 22 22
17 17 17 18 19 21 22 23 24 24 25 25 25 25 25 24 24 24 24 24 25 26 26 26 26 26 25 25 24 24 24 24 24 24 24 24 24 24 23 23 23 23 23 23 23 23 23 23 23 23 23 23 23 23 23 23 23 23 23 23 22 22 22
16 17 17 17 18 20 21 22 23 23 24 24 24 24 24 24 24 24 24 25 26 26 26 26 26 26 25 25 24 24 24 24 24 24 24 24 24 24 24 24 23 23 23 23 23 23 23 23 23 23 23 23 23 23 23 23 23 23 23 23 23 23 22
16 17 17 17 18 18 19 20 22 22 23 23 23 24 24 24 24 24 24 25 26 26 26 26 26 25 25 25 25 25 25 25 25 24 24 24 24 24 24 24 23 23 23 23 23 23 23 23 23 23 23 23 23 23 23 23 24 23 23 23 23 23 22
16 16 17 17 18 18 18 19 20 21 22 22 23 23 23 24 24 24 24 25 25 25 25 26 25 25 25 25 25 25 25 25 25 24 24 24 24 24 24 24 23 23 23 23 23 23 23 23 23 23 23 23 23 23 23 24 24 23 23 23 23 23 22
16 16 17 17 18 18 18 19 19 20 21 22 22 22 22 23 23 24 24 24 24 25 25 25 25 25 25 25 25 25 25 25 25 24 24 24 24 24 24 24 23 23 23 23 23 23 23 23 23 22 22 23 23 23 23 23 23 23 23 23 23 22 22
15 16 16 17 17 18 18 19 19 19 20 20 21 21 22 22 22 23 23 23 24 24 24 24 25 25 25 25 25 24 24 25 24 24 24 24 24 24 24 24 23 23 23 23 23 23 23 23 22 22 22 22 23 23 23 23 23 23 23 23 22 22 22
14 15 16 17 17 18 18 19 19 19 19 19 20 20 21 21 22 22 22 23 23 23 24 24 24 24 25 25 25 24 24 25 25 24 24 24 24 24 24 24 23 23 23 23 23 23 23 23 23 23 22 23 23 23 23 22 22 22 22 22 22 22 21
13 14 15 16 17 17 18 18 19 19 19 19 19 20 20 20 20 21 21 21 22 22 23 23 23 23 24 24 25 25 25 24 24 24 24 24 24 24 24 24 24 23 23 23 23 23 23 23 23 23 23 23 22 22 22 22 22 22 22 22 22 22 21
12 13 14 16 17 17 17 18 18 18 19 19 19 19 20 20 20 20 20 21 21 21 22 22 22 22 23 24 24 24 24 24 24 25 25 25 25 25 24 24 24 23 23 23 23 23 22 22 22 22 22 22 21 21 21 21 21 21 21 21 21 21 21
12 13 13 14 16 17 17 17 18 18 18 19 19 19 19 20 20 20 20 21 21 21 22 22 22 22 23 23 23 23 24 24 24 24 25 25 25 25 25 24 24 23 23 23 23 23 22 22 22 22 22 21 21 21 21 21 21 21 21 21 21 21 21
12 12 13 14 15 16 16 16 17 17 17 18 18 19 19 19 20 20 20 21 21 21 21 22 22 23 23 23 23 23 24 24 24 24 24 24 24 24 24 24 24 23 23 23 23 23 22 22 22 22 21 21 21 21 21 21 21 21 21 21 21 21 21

ECMWFFLT1_850_temp_048.txt.gz
Temp
29 29 28 27 26 25 25 24 23 23 23 22 22 21 21 21 21 21 21 22 23 23 23 22 22 22 22 22 21 21 21 21 21 21 21 21 21 21 21 22 22 22 22 22 22 22 21 21 20 21 21 21 20 20 20 20 20 20 20 20 20 20 20
30 29 29 28 27 26 25 24 23 23 23 22 22 21 21 21 21 21 21 22 23 23 23 22 22 22 22 22 22 22 21 21 21 21 21 21 21 21 21 22 22 22 22 22 22 22 22 21 21 21 21 21 20 20 20 20 20 20 20 20 20 20 20
30 30 30 28 27 26 25 25 24 23 23 23 22 22 22 22 22 22 22 22 23 23 23 23 22 22 22 22 22 22 22 21 21 21 21 21 21 21 21 22 22 22 22 22 22 22 22 22 21 21 21 21 21 21 20 20 20 20 20 20 20 20 20
30 30 30 29 28 27 26 25 24 24 24 23 23 23 23 23 23 23 22 23 23 24 23 23 23 22 22 22 22 22 22 22 21 21 21 21 21 21 21 22 22 22 22 22 22 22 22 22 21 21 21 21 21 21 21 20 20 20 20 20 20 20 21
30 30 30 29 28 27 26 26 25 24 24 24 23 23 23 23 23 22 23 23 24 24 24 23 23 22 22 22 22 22 22 22 21 21 21 21 21 21 21 21 22 22 22 22 22 22 22 22 22 21 21 21 21 21 21 21 21 20 20 20 20 20 21
31 30 30 30 29 28 27 26 26 25 25 24 24 23 23 22 22 23 23 23 24 23 23 24 23 23 22 22 22 22 22 22 22 21 21 21 21 21 21 21 22 22 22 22 22 22 22 22 22 22 21 21 21 21 21 21 21 21 21 20 20 21 20
32 31 31 30 30 29 28 27 26 26 25 25 25 24 23 23 23 23 23 23 23 23 23 24 24 23 23 23 22 22 22 22 22 22 22 21 21 21 21 21 22 22 22 22 22 22 22 22 22 22 22 21 21 21 21 21 21 21 21 21 20 21 20
32 31 31 31 31 30 29 28 27 26 26 25 25 24 24 23 23 23 23 23 23 23 23 23 23 24 24 23 23 23 23 22 22 22 22 22 21 21 21 21 22 22 22 21 22 22 22 22 22 22 22 22 21 21 21 21 21 21 21 21 21 21 21
32 31 31 31 31 31 30 28 27 27 26 25 25 25 24 24 24 23 23 23 23 23 23 23 23 23 24 24 23 23 23 23 22 22 22 22 21 21 21 21 21 22 22 21 22 22 22 22 22 22 22 22 22 22 22 21 21 21 21 21 21 21 21
32 31 31 31 31 31 30 29 28 27 26 25 25 25 24 24 24 24 23 23 23 23 23 23 22 22 23 24 24 24 23 23 23 22 22 22 22 21 21 21 21 21 22 22 21 22 22 22 22 22 22 22 22 22 22 22 22 22 21 21 21 21 21
32 31 30 31 31 31 30 29 28 27 26 25 25 25 24 24 24 24 24 24 24 23 23 23 22 22 22 23 24 24 23 23 23 22 23 22 22 21 21 21 21 21 22 22 21 21 22 23 22 22 23 23 22 22 22 22 22 22 22 22 22 22 22
31 30 29 29 30 30 30 29 28 26 26 25 25 25 24 24 24 24 24 24 24 24 23 23 22 22 22 22 23 23 24 24 23 22 23 23 22 21 21 21 20 21 21 22 22 21 22 23 23 23 23 23 23 22 22 22 22 22 22 22 22 22 22
29 29 28 28 29 29 29 28 27 26 25 25 25 25 24 24 24 24 24 24 24 24 23 23 23 22 22 22 22 23 24 24 24 23 23 23 22 21 21 21 21 21 21 22 22 22 22 22 23 23 23 23 23 22 22 22 22 22 22 22 22 22 22
28 29 28 28 28 28 28 27 26 26 25 25 25 25 25 24 24 24 24 24 24 24 23 23 23 22 22 22 22 23 24 24 24 24 23 23 23 22 21 21 21 21 20 21 22 22 22 22 23 23 23 23 23 22 22 22 22 22 22 23 22 23 23
28 29 29 29 28 27 27 27 26 25 25 25 25 25 25 25 24 24 24 24 24 24 24 23 23 22 22 22 22 23 24 24 24 24 24 23 23 23 22 21 21 21 21 21 22 22 22 22 22 23 23 23 23 23 22 22 22 22 23 23 23 23 23
27 27 28 28 28 27 27 26 26 25 25 25 25 25 25 25 25 24 24 24 24 24 24 23 23 22 22 22 23 23 24 24 24 24 24 23 23 23 23 22 22 22 21 22 22 22 22 22 21 22 23 23 23 23 23 23 23 23 23 23 23 23 23
25 25 25 26 26 27 27 27 26 25 25 26 25 25 25 25 25 24 24 24 24 24 24 23 22 22 22 22 23 23 23 24 24 24 24 24 24 23 23 23 22 22 22 22 22 22 22 22 22 21 21 22 23 23 23 23 23 24 24 24 24 23 23
23 23 23 24 24 25 26 27 27 26 25 26 26 25 25 25 24 24 24 24 24 24 24 23 23 22 23 22 22 23 24 24 24 24 24 24 24 24 24 23 23 22 22 22 22 22 22 22 22 22 21 21 22 22 23 23 24 24 24 24 24 24 23
20 21 22 23 23 23 24 25 27 27 26 26 26 26 25 25 25 24 24 24 24 24 24 23 23 22 22 22 22 23 24 25 25 25 24 24 24 24 24 23 23 23 23 22 22 22 22 22 22 22 22 21 21 22 22 23 24 24 24 24 24 24 24
19 19 20 21 22 23 23 24 26 27 26 26 26 26 26 25 25 25 25 24 24 24 24 23 22 22 22 23 23 24 24 25 25 25 24 24 24 24 24 24 23 23 23 23 22 22 22 22 22 22 22 22 22 22 22 23 24 25 25 24 24 24 24
17 18 18 20 21 22 22 23 25 27 27 26 26 26 26 25 25 25 24 24 24 23 23 23 22 22 22 23 24 24 25 25 25 25 24 24 24 24 24 24 23 23 23 22 22 22 22 22 22 22 22 22 22 22 23 23 24 25 25 25 24 24 24
16 16 17 19 20 21 22 22 24 26 27 26 26 26 26 25 25 25 25 24 24 23 23 23 22 22 22 23 24 25 25 25 25 25 24 24 24 24 24 24 23 23 23 23 22 22 23 23 22 22 22 22 22 22 22 23 24 25 25 25 25 24 24
15 16 16 18 20 21 22 23 24 26 27 26 26 26 26 26 25 25 25 25 24 23 23 22 22 22 23 24 25 25 26 25 25 25 24 24 24 24 24 24 24 24 23 23 22 22 22 23 23 22 22 22 22 22 23 23 24 24 25 25 25 24 24
15 15 16 19 20 21 22 24 25 26 26 26 26 26 26 25 25 25 25 25 24 23 23 22 22 23 24 25 25 26 25 25 25 25 25 24 24 24 24 24 24 24 24 24 23 22 22 23 23 23 23 23 22 23 23 23 24 24 25 25 24 24 24
15 15 16 19 21 21 22 24 25 25 26 25 26 26 25 25 25 25 24 24 24 23 23 23 23 24 25 26 25 25 26 25 25 25 25 24 24 24 24 24 24 24 24 24 23 23 22 23 23 23 23 23 23 23 23 23 23 24 24 24 24 24 24
13 14 16 19 20 21 21 23 24 25 25 25 25 26 25 25 25 24 24 24 24 23 23 24 24 25 26 25 25 25 25 25 25 25 24 24 24 24 24 23 23 23 24 24 23 23 23 22 22 22 22 22 22 22 23 23 23 23 24 24 24 24 24
13 15 16 18 19 20 21 23 24 24 25 25 25 25 25 25 25 24 24 23 23 24 24 24 25 25 25 25 25 25 25 25 25 25 24 24 24 23 23 23 23 23 23 23 23 23 23 22 22 21 21 21 21 22 22 23 23 23 23 24 24 24 23
13 14 16 17 19 20 21 23 24 24 25 25 25 25 25 25 24 24 24 24 25 25 24 24 24 25 25 25 25 25 25 25 25 25 24 24 24 23 23 23 23 22 22 22 22 22 22 22 21 21 21 21 21 21 21 22 22 23 23 23 23 23 23
12 14 15 17 18 19 21 22 23 24 25 25 24 25 25 24 24 24 24 25 25 25 24 24 24 25 25 25 25 25 25 25 25 24 24 24 24 23 23 23 22 21 21 22 21 21 21 21 21 21 21 21 21 21 21 21 22 22 23 23 23 23 23
12 14 15 16 17 19 20 21 21 23 25 25 24 24 24 24 23 24 24 25 25 24 24 24 24 25 25 25 25 25 25 25 24 24 24 24 23 23 23 22 22 21 21 21 21 21 21 21 21 21 21 21 21 21 21 21 21 22 23 23 22 22 22
12 13 15 16 17 18 20 21 21 22 23 24 24 24 23 23 23 23 24 24 24 24 24 23 24 24 25 25 25 24 24 24 24 24 24 23 23 23 23 22 22 21 21 21 21 21 21 21 21 20 20 21 21 21 21 21 21 22 23 23 23 23 22
12 13 15 16 17 18 19 20 21 21 21 22 22 23 23 23 23 23 23 23 24 24 23 23 24 24 25 25 25 24 24 24 24 24 24 23 23 23 23 23 22 22 22 22 21 21 21 21 21 21 21 21 21 21 21 21 21 21 22 23 23 23 22
11 13 14 15 16 17 18 19 20 20 20 21 21 22 22 22 22 22 23 23 23 23 23 23 24 24 25 25 24 24 24 24 24 24 23 23 23 23 23 23 23 22 23 22 21 21 21 21 21 21 21 21 22 22 21 21 21 21 21 22 23 23 23
11 12 14 15 16 16 17 18 19 19 20 20 21 21 21 21 21 21 22 23 23 23 23 23 23 24 24 24 24 24 24 23 23 23 23 23 23 23 23 23 22 22 23 23 22 22 21 21 21 21 21 22 22 22 22 21 21 21 21 22 22 23 23
10 11 13 15 16 16 16 17 18 19 19 19 20 20 20 21 21 21 22 23 23 23 23 23 23 24 23 23 23 23 23 23 23 23 23 22 23 22 22 22 22 22 22 22 22 22 22 22 22 22 22 22 22 22 22 22 22 22 21 21 21 22 23
10 11 12 14 16 16 16 17 17 18 18 19 19 20 20 20 21 21 21 22 22 22 23 23 23 23 23 22 22 22 22 23 23 22 22 22 22 22 23 22 22 22 22 22 22 22 22 22 22 22 22 22 22 22 22 22 22 22 21 21 21 21 21
10 10 11 14 16 16 16 16 17 17 18 18 18 19 19 19 20 20 20 21 21 22 22 22 22 22 22 22 22 22 22 23 23 22 23 22 22 22 23 23 22 22 22 22 22 22 22 22 22 22 22 22 22 22 22 21 21 21 21 21 21 21 21
9 10 11 13 15 15 16 16 16 16 17 17 18 18 18 19 19 19 20 20 20 21 21 21 22 22 22 22 22 22 22 23 23 22 22 22 22 23 23 23 23 22 22 22 22 22 22 22 22 22 22 22 21 21 21 21 21 21 21 21 21 21 21